GFSSW_925_temp_000.txt.gz
Temp
13 13 13 13 13 13 13 14 15 16 16 18 18 19 20 20 21 21 25 22 22 23 23 24 25 27 27 28 28 29 27 28 31 31 30 29 29 30 29 28 28 27 24 25 25
13 13 13 13 14 14 14 15 16 17 18 19 19 20 20 21 21 25 22 23 23 23 24 27 28 28 28 29 28 27 27 29 29 30 28 29 28 28 28 26 26 24 24 25 25
13 14 14 14 14 15 16 16 17 18 18 19 20 20 21 21 23 24 22 23 23 23 23 26 27 28 28 29 29 29 28 29 29 29 30 28 29 29 28 25 26 24 24 25 25
14 14 15 15 15 16 17 17 18 18 19 20 20 21 21 21 25 23 23 23 23 23 25 27 28 28 28 28 30 28 29 29 28 28 30 28 29 28 28 27 27 25 24 25 24
15 15 16 16 16 17 17 18 19 19 20 20 20 21 21 24 26 23 23 23 23 24 26 27 28 28 28 29 29 28 28 29 28 27 28 29 26 27 26 25 25 24 24 24 24
15 16 16 17 17 18 18 19 19 20 20 21 21 21 21 25 24 24 23 24 24 25 27 27 28 29 28 30 28 30 28 28 27 27 28 27 27 25 25 24 23 23 22 23 23
16 16 17 17 18 18 19 19 20 20 21 21 21 20 24 25 24 24 23 24 24 25 27 27 27 28 29 28 28 29 27 27 27 27 27 27 25 24 25 23 23 22 21 22 22
16 17 17 18 18 19 19 20 20 21 21 21 21 20 25 23 24 23 24 25 24 25 25 25 26 27 27 28 28 27 28 25 27 27 27 26 24 25 25 23 22 22 22 21 21
17 17 17 18 18 19 19 20 21 21 22 22 21 22 26 23 24 25 24 26 25 25 25 26 26 27 27 26 26 26 26 26 26 27 27 25 24 27 24 23 22 22 22 22 20
17 17 18 18 18 19 20 21 21 21 22 21 22 24 25 26 25 25 25 24 26 26 25 25 25 25 25 25 25 27 26 28 28 27 27 24 24 25 23 23 22 23 23 23 21
17 18 18 18 18 19 20 21 21 21 22 24 26 26 26 25 24 24 25 25 25 26 25 25 25 24 26 27 28 29 28 28 30 29 26 25 25 26 25 23 22 22 23 23 23
18 18 18 18 19 19 20 22 22 21 21 25 26 26 25 26 25 26 25 25 25 24 26 26 24 27 29 29 28 28 27 27 28 27 26 25 25 27 27 24 22 22 22 23 23
17 18 18 19 19 20 21 22 21 21 21 25 25 25 25 25 25 26 25 26 26 25 27 26 28 29 28 28 27 27 26 27 28 27 26 24 23 24 26 27 25 23 23 23 23
17 17 18 19 18 22 22 21 20 20 21 24 23 24 24 25 24 27 26 26 26 26 27 27 28 27 26 27 27 26 27 28 27 26 23 25 22 25 27 26 27 26 23 23 23
16 18 18 18 19 22 20 20 20 21 23 24 24 24 26 24 23 23 25 25 23 26 27 27 25 25 25 26 28 26 25 26 25 24 24 25 22 25 28 27 27 27 26 23 23
17 18 18 18 19 20 20 20 21 22 24 25 25 23 24 24 25 23 23 24 25 24 26 26 25 26 26 27 27 24 24 24 24 23 20 24 24 25 27 28 28 27 26 23 22
16 17 18 19 21 19 19 21 22 23 27 25 25 25 24 25 24 24 23 22 23 22 23 25 26 26 27 24 24 23 23 22 21 20 21 27 26 27 29 30 30 27 26 23 21
16 17 18 19 19 19 20 22 21 26 28 27 26 25 24 26 26 26 24 23 24 24 25 25 24 25 25 24 23 22 23 22 23 23 25 24 22 26 29 26 27 25 25 22 20
16 19 19 20 19 19 21 21 25 27 27 26 26 25 25 26 27 26 25 24 26 25 24 25 26 28 26 25 26 23 21 24 23 24 23 25 26 28 29 24 24 23 23 20 20
14 17 20 21 19 20 20 20 24 26 25 25 24 26 26 27 26 26 26 27 25 27 26 26 25 27 25 25 25 25 25 22 21 21 21 24 25 25 28 25 23 22 20 20 19
14 20 17 18 19 20 20 21 23 25 26 24 23 23 23 23 25 26 26 27 27 27 26 26 25 25 21 22 23 21 21 23 23 23 22 23 24 28 28 28 24 22 21 20 19
16 18 18 19 19 21 20 22 21 24 24 23 23 23 23 22 23 23 24 27 27 27 26 26 24 23 22 24 24 24 23 23 22 22 23 24 24 28 28 27 26 24 22 20 19
16 18 19 19 18 20 21 22 23 23 23 22 22 23 23 22 21 23 23 25 25 25 25 25 23 22 23 22 22 22 24 24 24 23 23 23 25 26 26 25 24 23 22 20 19
15 17 20 19 19 18 18 19 20 21 21 19 18 20 20 20 21 20 21 22 17 23 23 22 23 23 21 23 23 21 22 23 23 22 22 23 24 25 24 24 22 22 22 20 20
16 17 16 16 17 18 18 18 18 18 20 20 19 19 18 16 16 15 17 18 19 18 20 21 21 22 23 25 25 25 23 22 22 23 22 24 24 26 26 24 23 22 21 21 20
13 12 13 12 14 15 16 16 17 18 19 18 18 19 17 17 16 14 14 14 14 15 12 14 16 19 21 23 24 24 25 25 23 23 23 23 23 26 25 25 25 23 23 22 21
12 12 11 11 13 13 15 16 16 17 17 18 17 17 16 17 17 16 13 12 12 11 10 10 11 13 15 21 23 22 24 24 25 24 23 22 23 24 24 24 25 23 23 22 21

GFSSW_925_temp_003.txt.gz
Temp
13 12 13 13 13 13 14 14 15 16 17 18 18 19 20 20 21 21 22 23 23 24 24 24 25 26 26 25 26 26 22 24 27 26 26 26 27 28 27 25 23 23 22 23 25
12 13 13 13 13 14 14 15 16 17 18 19 19 20 20 20 21 21 22 23 23 24 24 24 25 26 23 26 25 23 21 26 27 26 25 26 26 26 26 24 22 21 23 24 24
13 13 14 14 14 15 15 16 17 18 19 19 20 20 20 20 20 22 23 23 24 23 24 24 26 26 26 27 26 26 24 27 26 27 27 26 25 26 23 23 22 21 21 22 23
14 14 15 15 16 16 17 17 18 19 19 20 20 20 20 20 23 23 23 23 24 24 24 25 25 25 26 25 26 26 27 27 27 27 27 26 25 25 24 24 22 21 21 22 21
14 15 15 16 16 17 18 18 19 19 20 20 20 20 21 20 22 23 23 23 24 24 24 25 25 25 25 25 27 26 26 27 25 26 26 26 25 24 23 22 21 21 21 20 20
15 15 16 16 17 17 18 19 19 20 20 20 20 20 20 21 24 23 23 23 24 24 25 26 25 25 26 27 25 26 25 25 25 25 25 26 25 24 22 20 21 21 20 19 19
16 16 16 17 18 18 19 19 19 20 21 21 20 20 20 21 24 24 24 24 24 24 23 26 25 25 26 27 27 27 25 25 24 24 25 25 24 22 22 20 19 19 18 18 19
16 16 17 17 17 18 19 19 20 21 21 21 21 20 19 24 24 24 24 24 24 24 24 25 25 24 25 26 27 26 24 22 23 23 24 23 20 22 20 20 18 18 16 17 18
17 17 17 17 18 18 19 20 20 21 21 21 21 20 20 24 23 24 24 24 25 25 25 25 25 24 25 22 22 23 21 22 24 23 24 22 21 23 20 21 19 17 17 18 17
18 18 18 18 18 19 20 20 21 21 21 21 20 20 22 23 24 24 24 24 24 24 24 24 22 21 20 19 19 21 22 24 23 23 22 21 21 22 19 20 19 18 18 18 18
17 18 18 19 19 19 20 21 19 18 19 19 22 21 24 24 24 24 24 24 24 23 20 22 20 19 20 20 22 24 25 24 24 25 23 22 22 21 20 19 19 18 18 19 19
17 18 18 19 19 19 19 18 20 19 17 20 22 22 25 25 23 23 24 22 22 20 21 21 19 21 23 23 23 23 23 23 24 25 24 22 22 23 21 21 21 20 19 20 19
17 18 19 19 20 20 21 20 20 20 18 21 22 23 24 24 23 23 23 22 22 21 21 19 22 25 24 24 24 23 23 24 24 26 24 23 21 21 23 22 22 21 21 20 20
16 17 18 20 20 20 20 20 20 20 16 21 22 23 23 23 22 24 24 23 23 21 21 21 24 25 24 24 24 23 25 25 24 23 20 22 22 22 24 23 22 21 20 20 20
16 17 18 19 19 19 20 20 20 19 20 23 22 24 23 22 23 23 24 23 21 23 23 22 24 23 23 24 24 23 25 25 24 23 22 22 19 20 22 23 23 22 21 20 20
16 16 17 18 18 19 20 20 20 18 20 23 21 22 21 22 23 22 22 22 22 22 22 21 24 23 24 24 25 22 23 23 21 19 18 20 20 25 22 25 24 23 21 20 20
16 17 17 17 19 20 20 19 17 17 24 24 22 22 21 21 22 21 20 19 19 19 19 22 22 24 25 23 23 23 20 18 18 17 18 21 20 24 23 24 25 25 21 20 20
17 18 19 19 19 19 20 17 19 21 23 23 23 23 21 23 22 21 21 19 18 20 19 19 20 22 22 23 21 19 20 17 18 17 21 21 19 23 24 27 24 23 22 18 18
17 17 18 20 20 19 15 16 18 22 23 21 22 22 22 23 22 22 20 20 20 20 19 20 21 23 23 23 23 19 20 22 20 20 19 20 21 23 25 24 22 21 19 18 18
15 15 18 19 20 19 14 16 19 22 22 22 20 21 20 21 20 21 22 23 22 22 22 21 21 24 23 23 22 20 20 19 18 19 18 19 20 21 24 26 21 20 19 18 17
15 13 18 19 19 13 14 16 20 21 21 21 21 20 20 19 20 20 21 23 23 23 22 22 20 23 22 20 21 20 21 20 19 16 17 19 19 20 24 23 20 21 18 18 17
11 14 18 19 14 13 14 18 18 19 19 19 20 20 19 19 20 20 20 21 20 19 20 22 21 21 22 20 21 22 22 22 20 18 19 22 23 25 23 22 21 19 19 17 17
8 11 18 18 13 13 15 17 18 18 18 18 18 18 18 17 16 18 18 17 14 16 17 16 19 20 22 20 20 19 21 21 22 18 21 21 23 24 26 24 20 20 19 18 17
8 11 11 12 12 14 13 15 15 16 17 18 17 17 17 17 17 16 15 16 15 15 16 16 18 19 19 22 20 18 19 21 20 20 21 21 23 23 23 22 21 19 19 18 18
8 10 10 9 10 10 11 13 13 14 16 16 15 15 14 14 15 14 15 15 15 16 12 12 13 14 13 14 16 19 22 21 20 21 21 22 22 23 23 21 20 19 19 17 17
8 8 7 7 8 9 10 11 13 14 13 13 12 13 13 12 13 12 13 12 12 13 13 12 10 10 11 12 12 13 15 17 21 22 22 22 23 22 22 20 20 19 20 18 19
9 10 10 10 8 8 9 11 12 12 13 13 13 12 12 13 13 12 11 12 12 11 11 11 11 11 11 13 12 11 15 18 20 23 22 21 23 22 23 23 24 21 18 19 19

GFSSW_925_temp_006.txt.gz
Temp
13 12 12 12 13 13 13 14 14 15 16 17 18 19 19 20 21 21 21 23 23 23 23 24 25 25 25 24 25 22 21 23 26 24 27 25 26 27 24 23 22 22 20 22 25
12 12 13 13 13 13 14 15 15 16 17 18 19 19 19 20 21 21 23 23 23 23 24 23 24 25 22 25 23 21 20 24 26 25 24 25 25 24 24 22 21 21 21 23 23
12 12 13 14 14 15 15 16 17 17 18 18 19 19 20 20 20 22 24 23 23 23 23 23 23 25 24 25 25 23 22 24 26 26 25 25 25 25 22 22 20 20 20 21 21
12 14 14 15 15 16 16 17 17 18 18 19 19 20 20 20 23 23 24 23 23 23 24 24 24 24 24 24 25 25 25 26 26 26 26 24 25 24 22 22 21 20 20 20 19
14 14 15 16 16 16 17 18 18 19 19 19 20 20 20 20 20 24 23 23 23 24 23 23 24 24 24 24 25 25 25 26 25 25 25 25 24 24 22 22 20 20 20 19 18
15 16 16 16 17 17 18 18 19 19 19 20 20 20 20 20 24 24 23 23 23 23 24 23 24 24 23 24 24 25 24 24 24 25 25 24 24 24 22 20 19 20 19 18 18
16 16 17 17 17 18 18 19 19 20 20 20 20 20 19 20 24 23 23 23 24 24 23 24 24 24 24 25 25 24 25 24 23 23 23 24 23 21 21 19 19 18 17 18 17
17 17 17 17 18 18 19 19 20 20 20 20 20 19 18 23 24 23 23 24 24 24 24 24 24 23 24 25 25 24 23 21 22 21 23 23 20 21 19 19 18 18 16 17 17
17 18 18 18 19 19 20 20 20 21 20 20 20 19 19 23 23 24 24 23 24 24 24 25 24 23 24 21 20 20 20 20 21 21 22 22 21 21 18 19 19 18 17 17 16
17 18 18 19 19 19 20 21 21 21 21 20 19 19 20 22 24 24 24 24 23 23 23 23 19 19 18 18 19 20 19 20 21 22 21 20 21 20 20 19 20 18 17 17 17
17 18 18 18 19 19 21 21 18 19 19 19 20 19 23 23 24 23 24 23 23 22 20 21 19 18 18 19 21 21 21 22 23 23 21 21 22 22 20 17 18 17 17 17 18
16 17 18 19 19 19 19 19 19 19 17 18 19 20 22 24 23 22 23 22 21 19 20 20 18 20 20 20 20 21 20 20 21 23 21 20 21 22 19 18 19 19 18 18 18
16 17 18 19 19 20 19 19 19 19 17 18 20 20 22 23 22 21 21 20 20 19 19 17 20 21 21 21 21 21 21 21 22 24 22 22 21 21 21 20 21 21 20 19 19
15 16 18 20 19 19 19 19 19 20 16 20 22 23 23 22 21 23 23 21 21 19 19 18 21 22 21 21 21 21 21 22 23 22 20 21 22 20 20 20 19 21 21 20 19
16 16 17 19 19 19 20 19 19 19 20 22 22 23 22 22 22 22 22 23 21 21 21 20 23 20 21 22 22 22 22 22 23 21 20 20 18 22 21 21 22 21 21 20 20
17 17 17 18 18 20 19 19 19 18 20 22 21 22 21 21 22 21 22 22 22 21 20 19 21 22 22 23 22 22 23 19 17 17 17 20 19 24 22 23 25 25 22 20 19
17 18 18 17 18 19 19 18 17 18 23 23 22 21 20 21 21 20 20 19 19 19 18 19 21 22 23 23 22 22 19 17 18 16 19 19 19 24 21 21 21 23 23 18 18
17 18 18 19 19 19 19 17 20 20 21 22 21 21 20 21 20 20 19 18 18 19 17 18 20 20 21 23 21 18 20 17 18 18 22 18 18 23 21 25 26 23 21 19 16
17 17 18 18 19 19 14 16 18 19 21 20 20 20 21 22 22 21 18 17 19 18 18 18 18 21 21 23 22 21 18 21 20 19 17 18 19 21 20 21 20 20 20 18 16
16 16 18 18 19 19 14 16 17 20 19 19 19 20 19 19 19 18 20 21 21 19 19 19 19 22 22 22 21 21 20 19 16 18 18 19 18 21 21 24 23 20 18 19 16
16 13 18 18 19 13 14 14 18 18 18 18 17 17 18 18 18 18 19 20 16 17 18 18 17 20 21 19 20 19 20 18 17 17 20 20 22 19 23 23 22 21 20 19 16
11 13 18 18 13 9 13 16 16 17 17 17 17 17 16 16 16 17 18 18 15 15 15 16 15 16 19 21 21 22 22 21 20 20 15 21 22 24 21 20 20 22 19 16 16
7 9 17 17 12 11 12 14 15 15 15 16 16 17 16 15 15 16 16 16 15 15 14 15 15 15 17 18 17 17 18 19 20 21 20 20 22 23 23 23 21 19 18 17 17
7 10 9 8 8 10 10 11 13 14 14 14 14 14 13 13 14 14 14 15 14 15 16 13 13 14 14 13 10 12 11 13 13 17 20 20 21 23 22 20 20 19 17 17 17
6 7 8 7 8 7 9 11 11 12 12 12 12 12 11 10 11 12 12 13 14 14 12 13 11 12 12 13 13 12 12 11 11 11 11 14 17 23 23 23 23 21 18 16 16
7 7 6 6 7 8 8 10 11 11 10 11 10 11 11 10 11 10 11 11 11 12 12 10 11 13 12 13 12 12 12 13 12 13 13 16 16 21 23 21 21 22 19 18 17
8 8 6 7 7 7 7 10 10 9 10 11 10 9 9 11 10 10 10 10 10 10 10 10 10 9 10 12 13 11 13 13 15 16 15 13 13 14 13 14 20 20 20 20 20

GFSSW_925_temp_009.txt.gz
Temp
12 12 12 12 13 13 13 13 14 15 15 16 17 18 19 19 20 20 20 23 23 23 23 24 24 24 24 23 23 21 21 22 25 23 25 25 26 25 23 21 22 22 19 22 24
12 12 12 13 13 13 14 14 15 16 17 17 18 18 19 19 20 20 23 23 23 23 23 23 23 24 21 24 22 21 20 22 24 24 25 24 25 23 24 22 22 21 21 21 22
11 12 13 13 14 14 15 15 16 17 17 18 18 19 19 20 19 22 24 23 23 23 23 23 23 24 24 24 24 21 22 23 25 26 24 24 25 23 22 21 20 20 20 18 19
12 14 14 15 15 15 16 16 17 17 18 18 19 19 20 20 22 24 24 23 23 22 23 23 23 23 23 24 24 24 23 25 26 26 24 24 24 24 21 23 22 20 19 19 18
15 15 15 16 16 16 17 17 18 18 18 19 19 19 19 19 20 24 24 23 23 23 23 23 23 23 23 23 24 23 25 25 25 25 25 24 24 23 21 21 21 19 19 19 19
16 16 16 17 17 17 18 18 18 19 19 19 19 19 19 19 23 24 23 23 23 23 23 22 23 23 23 23 23 24 24 24 23 24 24 24 23 23 23 20 20 18 18 19 19
16 17 17 17 18 18 18 19 19 19 20 20 20 19 18 19 23 23 23 23 23 23 23 23 23 23 23 23 24 24 25 23 22 23 23 22 22 20 22 19 19 17 18 18 18
16 17 17 18 18 19 19 19 20 20 20 20 20 19 17 22 23 23 23 23 23 23 23 24 24 23 23 22 21 24 23 21 21 21 22 22 20 20 20 18 18 16 16 17 17
17 17 18 18 18 18 19 20 21 21 21 20 20 19 18 22 22 23 23 23 23 23 23 24 24 22 22 20 19 19 19 19 20 19 22 21 20 21 19 18 19 17 17 17 18
17 17 18 18 19 19 20 20 21 20 20 19 18 18 20 22 23 23 23 23 22 22 21 22 18 18 17 18 19 19 18 18 19 22 20 20 19 20 19 17 19 18 17 17 18
16 17 18 18 19 20 21 20 18 18 19 19 19 19 22 23 23 23 23 23 22 21 19 20 18 17 18 18 20 20 19 20 20 21 20 19 20 22 21 17 17 17 17 17 18
15 16 18 18 19 19 20 18 19 19 16 18 17 18 20 22 22 22 23 21 20 18 19 18 16 19 19 18 19 19 19 19 19 20 20 20 20 21 21 17 20 19 18 18 18
15 16 17 18 19 20 19 19 19 19 16 18 18 19 20 21 21 21 21 20 19 18 17 16 19 20 19 19 19 19 19 19 20 21 20 21 21 19 19 20 19 19 20 20 18
16 17 17 19 19 19 19 19 19 19 15 20 21 22 22 21 21 21 22 20 20 19 17 17 20 20 19 19 19 19 20 20 20 20 20 20 21 22 20 20 19 20 20 19 19
17 17 17 18 18 18 18 18 19 18 20 22 21 23 21 21 21 21 21 22 20 20 19 19 20 20 18 20 20 19 21 19 19 18 19 19 19 22 19 20 20 21 19 20 20
17 18 18 18 18 18 18 19 18 17 20 22 21 21 21 21 21 21 21 22 21 20 18 19 20 21 20 22 20 22 21 20 16 16 17 20 19 23 24 22 22 22 21 20 20
17 18 19 18 17 19 19 17 17 17 21 21 20 21 20 20 20 20 20 19 18 18 17 18 19 19 21 20 21 21 19 16 17 15 20 19 18 23 22 21 20 22 23 22 18
17 18 18 17 18 19 19 16 19 20 19 20 19 19 20 20 20 20 19 17 18 17 16 17 19 19 20 20 20 18 20 19 17 17 21 17 17 23 21 21 22 21 21 22 20
18 17 17 17 19 19 14 15 17 17 17 17 18 18 19 19 18 18 18 17 18 17 17 17 17 20 21 21 21 20 17 21 19 21 17 21 19 20 19 19 20 19 19 19 21
17 17 16 18 18 18 13 16 17 17 16 17 17 17 16 17 17 16 18 19 16 15 15 16 16 20 20 21 21 20 19 18 15 18 18 20 17 20 21 22 22 20 19 18 18
16 13 17 18 18 12 13 14 16 17 16 16 17 16 16 14 15 16 17 16 15 15 15 14 14 17 18 18 19 19 17 17 17 16 19 19 21 21 22 23 23 21 19 18 18
12 12 17 18 12 8 12 13 14 14 15 16 16 16 15 14 14 15 15 17 14 14 13 14 14 14 16 18 20 19 19 16 17 17 15 19 20 23 21 20 20 19 19 18 16
7 8 16 16 11 9 10 12 14 13 14 14 14 13 12 13 12 14 12 14 13 13 14 13 13 12 14 15 12 11 13 13 11 11 12 14 18 19 16 14 17 18 20 19 17
7 10 8 6 6 9 9 10 12 13 13 12 12 12 11 12 13 11 11 13 12 12 15 14 12 12 12 13 13 13 14 14 12 10 11 11 11 13 14 14 14 15 17 20 16
5 6 6 7 6 7 8 9 10 11 11 10 11 10 9 9 9 10 10 11 11 12 12 11 10 11 12 12 12 12 13 13 12 11 10 12 14 15 15 14 12 12 12 12 15
5 6 5 5 6 7 7 9 10 10 9 9 9 9 9 8 8 8 9 9 9 10 10 10 9 10 9 11 11 11 12 12 12 13 13 13 11 12 13 12 11 11 11 12 14
7 7 5 6 6 7 7 8 9 8 8 9 9 8 8 8 9 9 9 9 9 9 9 9 8 8 8 10 10 10 11 12 12 13 14 13 13 11 10 11 10 9 11 12 11

GFSSW_925_temp_012.txt.gz
Temp
12 12 12 12 12 13 13 13 14 14 15 16 17 18 18 19 20 20 20 23 23 23 23 24 24 24 24 22 22 20 21 21 24 22 25 24 25 24 22 21 21 20 20 21 23
12 12 12 12 13 13 13 14 15 16 16 17 18 18 18 19 20 20 23 23 23 23 23 22 22 22 20 23 21 20 19 22 23 22 24 24 24 22 23 22 21 21 20 20 20
12 13 13 13 14 14 15 15 16 16 17 18 18 18 19 19 20 22 23 23 23 23 22 22 22 23 23 23 23 20 21 22 24 24 24 25 23 22 22 21 21 21 20 17 17
14 14 15 15 16 16 16 17 17 18 18 19 19 19 20 20 24 23 23 23 23 23 23 23 23 23 22 23 23 23 22 23 24 25 23 24 23 22 20 24 22 20 19 17 16
14 15 16 16 16 17 17 18 18 18 19 19 19 20 20 19 20 23 23 23 22 22 22 22 22 22 22 22 23 22 23 23 23 23 23 23 22 22 21 20 21 20 18 17 18
15 15 16 16 17 17 18 18 18 19 19 20 20 20 20 20 23 23 23 23 22 22 22 22 22 22 22 22 23 23 22 22 23 23 23 23 23 22 22 21 20 18 17 17 19
16 16 16 17 17 18 18 18 19 19 19 19 20 20 18 19 22 23 23 22 22 23 22 23 23 23 22 22 22 22 22 21 21 22 22 21 21 20 21 20 19 17 16 16 18
16 16 17 17 18 18 19 19 19 20 20 20 20 19 17 21 22 23 23 23 23 23 23 23 23 22 22 21 20 22 21 20 21 20 22 22 22 21 20 18 19 17 15 16 17
16 17 17 18 18 19 19 20 20 20 20 20 19 19 18 22 22 23 22 23 23 23 23 23 22 20 21 19 18 17 18 18 19 19 21 20 19 20 20 17 18 17 16 16 17
16 17 17 18 18 19 19 20 20 20 19 18 18 19 21 22 22 22 22 23 22 21 20 20 16 17 15 17 18 18 18 17 19 21 19 18 18 20 18 18 17 17 16 15 16
15 16 17 18 19 19 20 19 18 18 18 19 20 19 20 22 22 22 22 22 21 19 19 18 17 16 16 17 19 19 18 18 18 20 19 18 19 20 21 17 17 17 16 16 17
15 16 17 18 19 19 20 17 18 18 17 17 17 17 19 21 20 21 22 21 20 18 18 16 16 18 18 18 18 18 17 18 18 19 18 18 19 21 21 18 20 19 19 18 18
17 17 18 19 20 19 19 17 18 18 16 17 18 18 19 20 19 20 20 19 19 18 17 16 19 19 18 18 18 17 17 18 18 18 18 18 20 21 19 20 17 18 20 21 19
18 18 18 19 20 18 17 18 18 18 16 20 20 21 21 20 21 21 21 20 19 18 16 16 17 18 18 18 18 17 18 19 18 18 19 20 21 23 21 20 18 18 18 19 19
18 19 18 19 19 17 18 18 18 18 20 21 21 22 21 21 20 21 20 21 19 19 18 18 20 19 18 18 18 17 19 18 18 17 17 17 17 23 21 21 19 19 18 18 19
17 18 18 18 18 18 18 18 18 17 20 21 20 20 20 20 21 20 20 21 20 19 17 18 19 20 19 20 18 20 20 19 14 15 16 19 18 22 23 20 22 22 20 20 19
18 18 18 17 17 18 18 17 17 17 19 18 18 18 19 19 19 19 19 19 18 18 17 17 18 18 19 19 19 19 18 15 16 14 18 19 18 23 21 21 21 21 21 22 19
17 17 17 16 18 18 18 16 20 16 16 17 18 17 19 17 18 17 18 16 17 17 14 16 17 19 19 20 19 18 16 15 17 15 17 17 17 22 21 19 19 19 19 18 18
17 17 17 17 18 18 14 14 15 16 16 16 16 17 16 16 17 16 16 17 14 13 15 14 15 18 19 19 20 18 17 18 17 19 17 19 19 21 21 19 18 18 18 18 19
17 16 16 18 18 18 13 14 15 16 15 16 16 16 15 14 15 14 16 14 14 14 14 14 14 17 18 18 19 18 18 17 15 16 17 18 17 19 20 21 18 15 16 16 17
17 12 17 18 18 12 12 14 15 15 15 15 15 15 14 13 14 15 15 13 13 13 13 13 12 15 16 16 15 16 16 16 16 18 16 15 17 20 12 13 14 15 16 16 15
13 12 16 17 11 7 11 12 13 13 13 13 15 13 13 12 12 13 14 13 13 13 13 13 11 12 13 15 15 15 15 15 12 13 11 11 13 14 14 15 16 16 15 15 15
7 8 16 16 10 8 9 11 12 12 12 11 12 12 11 12 12 12 12 12 11 11 11 12 10 9 11 13 13 12 14 14 12 9 10 11 12 16 14 15 15 16 13 12 13
7 10 7 5 4 8 8 10 11 11 10 10 11 10 10 10 11 10 10 11 10 11 13 12 10 10 9 10 11 10 11 12 11 9 10 11 12 13 14 13 14 13 11 11 12
4 5 6 6 6 7 8 8 10 10 9 9 10 8 8 7 8 8 9 9 10 11 11 9 8 9 10 10 10 10 10 10 10 10 9 11 11 12 14 14 13 12 11 11 12
5 6 4 4 5 7 7 9 9 9 9 9 9 7 7 6 7 7 8 8 8 9 8 8 8 9 8 9 9 9 10 10 10 10 10 11 11 12 11 11 12 13 12 11 11
6 6 5 5 5 7 7 8 8 8 8 8 7 6 6 7 8 7 8 8 7 7 7 7 7 5 7 9 8 8 10 11 11 11 12 10 8 7 8 9 10 12 11 11 10

GFSSW_925_temp_015.txt.gz
Temp
12 12 12 12 12 13 13 13 14 15 16 17 18 18 19 19 20 21 20 22 22 23 23 24 24 23 23 22 21 21 24 25 25 24 26 24 25 24 23 24 22 23 23 22 21
12 12 12 13 13 13 14 15 15 16 17 18 18 19 19 20 20 20 22 22 23 23 23 22 22 22 22 22 22 23 23 24 24 24 25 25 25 25 25 23 23 23 22 20 19
12 13 13 14 14 15 15 16 17 18 18 19 19 19 20 20 20 22 22 22 22 23 23 22 22 22 23 22 22 21 23 22 24 24 24 25 24 24 24 23 25 25 25 20 19
12 13 14 14 15 16 16 17 18 18 19 19 19 20 20 20 24 22 22 22 23 23 23 22 22 22 22 22 22 23 22 22 24 24 24 24 24 24 23 28 25 24 22 20 20
12 14 14 15 16 16 17 17 18 18 19 19 19 20 20 20 21 22 22 22 22 23 22 21 22 21 22 21 22 22 22 23 23 22 23 23 23 24 23 24 23 21 20 21 21
14 15 15 16 16 17 17 18 18 19 19 19 19 20 20 22 22 22 22 22 22 22 22 22 22 21 22 22 22 21 22 22 22 23 22 23 23 22 23 23 22 22 22 21 21
15 16 16 16 17 17 18 18 18 19 19 19 20 19 18 21 22 22 22 22 22 22 22 22 22 22 21 21 21 21 22 21 22 22 23 22 23 22 24 22 24 22 23 21 20
16 17 17 17 18 18 18 19 19 19 19 19 20 19 19 21 22 22 22 22 22 22 22 22 22 22 22 21 21 21 21 22 22 21 22 24 24 25 22 22 23 23 23 20 21
16 17 17 18 18 18 19 19 20 20 19 19 19 19 20 21 22 22 22 22 22 22 22 22 21 19 20 20 21 19 22 20 20 21 21 22 22 22 20 20 21 22 22 20 20
15 16 17 18 18 19 19 19 19 19 19 18 18 19 21 21 21 22 22 22 21 21 20 19 17 18 18 20 22 21 20 19 19 21 19 20 20 21 22 20 22 23 23 21 21
16 16 17 18 19 19 19 18 18 17 18 19 18 19 20 21 21 21 21 22 21 19 19 17 19 19 19 18 19 19 19 19 21 21 20 22 22 22 23 20 20 21 22 22 22
17 17 18 18 19 19 19 17 17 17 18 17 17 17 18 20 20 21 21 21 20 19 18 18 18 19 17 17 18 18 19 19 20 20 19 20 21 22 22 23 23 22 23 23 24
18 18 18 19 19 19 18 17 18 17 17 18 18 19 19 19 19 19 20 19 19 17 17 18 20 17 18 18 18 18 18 19 20 20 19 19 22 23 22 22 22 21 22 23 23
18 19 18 19 19 18 17 17 18 18 17 19 20 20 20 19 20 20 20 20 19 19 16 17 17 19 18 18 18 18 19 20 19 19 20 21 22 24 25 25 21 21 21 22 22
18 19 19 19 19 17 17 17 18 18 21 20 21 22 20 21 20 19 20 20 19 19 18 20 19 19 18 19 18 20 19 18 18 18 18 20 20 26 24 24 25 26 24 21 21
18 19 18 19 18 17 17 18 18 18 20 20 19 18 19 19 19 18 19 20 19 18 17 18 17 19 20 19 18 19 19 18 15 17 18 21 21 24 25 24 23 24 24 23 22
17 17 18 17 15 17 17 17 18 18 17 17 17 17 17 17 18 17 17 17 17 17 16 16 17 18 19 19 18 19 18 18 19 17 19 19 21 24 24 25 23 23 21 18 19
17 18 17 16 17 17 17 17 19 15 15 16 17 16 17 15 16 16 17 16 14 14 15 15 18 19 18 18 19 18 19 19 18 19 21 20 20 23 22 20 17 17 17 17 18
17 17 17 17 18 18 15 13 14 15 15 15 16 15 15 15 16 15 14 14 13 13 14 15 15 17 19 18 18 18 18 18 17 19 18 20 21 22 24 19 16 17 18 17 17
17 16 16 17 18 17 13 13 14 15 14 15 15 15 15 13 15 14 15 13 13 13 13 14 14 16 16 17 17 16 16 16 16 16 16 19 20 20 21 15 16 17 17 17 16
17 13 17 18 17 12 12 13 14 14 13 15 15 15 13 13 13 14 14 11 12 12 13 12 12 15 15 15 14 15 15 15 15 16 14 15 17 14 15 15 16 17 17 16 15
13 13 16 18 11 7 11 12 13 12 11 12 13 12 12 12 12 13 13 11 11 12 11 12 11 11 12 14 14 14 13 13 10 11 11 9 9 15 15 16 16 15 16 16 16
8 8 15 16 11 8 9 11 11 11 10 10 11 11 10 11 11 11 11 11 10 10 10 11 10 10 12 12 13 12 12 12 11 10 9 9 11 15 14 14 15 14 15 15 14
7 11 7 5 4 8 10 9 11 10 9 10 10 9 9 9 10 10 10 11 10 10 13 12 10 10 9 10 10 9 10 10 10 8 9 10 11 12 13 13 11 11 11 13 13
4 5 6 7 6 6 7 8 9 8 8 8 8 7 7 7 7 8 9 9 9 10 10 9 8 9 9 10 10 10 9 10 9 10 9 10 10 11 11 8 10 11 12 12 13
6 6 3 4 5 7 6 7 8 8 8 8 8 7 7 6 8 7 7 8 8 9 9 8 8 9 8 9 9 9 10 10 10 11 11 11 11 11 9 10 11 11 12 11 12
6 5 5 4 5 7 6 7 7 8 8 8 7 6 6 7 7 8 7 7 7 7 8 7 7 7 7 9 9 8 10 11 11 11 11 10 11 10 9 11 12 11 11 11 12

GFSSW_925_temp_018.txt.gz
Temp
12 12 12 13 13 14 14 14 15 16 17 18 18 19 20 20 21 21 25 23 22 23 23 24 24 25 26 27 26 26 30 30 31 30 32 31 30 30 29 31 29 29 31 29 27
12 12 12 13 13 14 14 15 16 17 17 18 19 19 20 21 20 24 22 22 22 23 24 25 26 26 28 27 27 29 29 31 31 31 31 31 30 32 29 30 29 30 29 26 26
12 12 12 13 14 14 15 16 16 17 18 19 19 20 20 21 24 24 22 22 22 23 23 23 24 26 27 27 27 27 29 28 29 29 28 29 29 29 29 30 31 32 32 28 26
11 12 13 14 14 15 16 16 17 18 18 19 19 20 20 20 27 23 22 22 23 23 24 25 26 27 27 27 26 27 27 27 28 28 27 28 29 29 29 31 31 30 31 30 27
12 14 14 15 15 16 17 17 18 18 19 19 20 20 20 26 25 22 22 22 22 22 24 25 26 26 27 27 26 26 28 27 27 27 27 28 27 29 30 30 31 30 27 28 28
15 15 15 16 16 17 17 18 18 18 19 19 20 20 22 26 22 22 22 22 22 23 24 25 26 26 26 26 26 26 26 27 27 28 28 27 28 28 29 30 30 30 29 29 29
15 16 16 17 17 17 18 18 19 19 19 20 20 20 23 24 21 22 22 22 22 23 24 23 24 25 25 26 25 26 26 28 28 28 27 27 27 28 30 30 30 30 31 31 30
16 16 17 17 17 18 18 19 19 19 19 19 20 20 24 21 22 22 22 22 22 22 23 22 23 25 25 25 26 26 27 27 28 26 27 26 28 31 29 28 29 30 31 30 31
16 16 17 18 18 18 19 19 19 20 20 19 20 22 24 22 23 22 22 23 23 22 22 22 24 24 24 25 27 26 28 28 28 26 26 26 28 30 27 27 28 30 31 31 30
16 17 17 18 18 18 19 19 19 19 19 19 19 23 24 23 22 21 21 22 23 23 24 24 24 25 25 26 27 28 27 28 27 28 25 25 26 28 29 28 28 28 30 31 31
17 17 17 18 18 19 18 18 21 22 21 22 22 22 23 22 21 23 22 23 23 24 25 23 24 26 27 26 26 25 25 25 26 28 26 25 26 27 28 28 28 28 28 30 31
18 17 18 19 19 19 19 21 19 19 22 19 20 20 20 20 23 23 22 24 23 24 23 24 25 24 22 23 22 24 24 25 27 27 25 26 26 27 28 28 29 28 29 30 30
18 18 18 19 19 19 19 17 18 18 23 21 21 22 22 21 23 23 23 23 23 22 23 24 25 21 22 23 23 24 24 25 25 26 26 26 27 31 31 28 29 29 29 29 29
19 19 19 19 19 18 18 17 18 18 26 23 23 22 22 22 22 21 22 23 23 23 22 23 22 22 22 23 24 24 24 23 23 23 25 25 26 29 31 29 29 30 30 29 27
19 19 19 19 18 19 17 17 18 18 26 22 23 22 23 23 22 22 21 22 23 23 22 25 23 23 22 23 22 24 22 23 22 23 24 25 23 29 31 29 28 28 24 23 23
18 19 18 18 18 17 17 17 18 24 25 22 22 21 23 22 22 22 22 22 22 21 22 22 23 22 23 22 22 22 23 23 22 22 22 26 25 27 28 27 27 25 23 22 22
17 17 18 18 18 17 17 19 25 25 21 21 20 21 20 21 21 21 21 19 20 21 23 22 22 22 21 22 22 23 23 24 24 23 25 24 24 27 28 25 21 21 21 21 21
18 18 18 16 17 17 18 23 24 19 19 19 19 20 20 19 20 20 21 20 18 18 20 20 23 21 20 20 20 21 21 22 21 24 24 24 22 26 28 27 22 21 21 20 20
17 17 17 17 18 18 22 24 20 19 18 18 19 20 20 19 19 21 18 17 16 17 18 19 20 21 20 20 20 21 20 19 19 20 20 22 24 26 27 24 20 20 20 19 19
17 17 17 18 18 19 23 17 17 17 17 18 19 19 19 18 19 19 19 15 15 15 17 17 16 19 18 19 20 19 19 17 19 17 19 22 21 21 20 18 19 19 18 18 18
17 21 17 18 18 22 21 17 16 16 16 17 18 18 16 16 17 18 17 13 14 14 16 16 16 18 18 18 17 16 16 16 15 17 16 15 17 19 17 18 18 18 17 16 16
17 21 17 19 21 18 18 15 14 15 15 16 16 15 15 15 16 16 16 14 13 13 13 14 14 14 16 17 16 16 13 14 13 13 14 13 13 17 18 18 18 17 15 15 15
18 17 16 17 21 18 15 14 13 14 13 14 14 14 14 14 15 14 14 12 12 13 13 13 14 12 17 15 16 15 14 14 13 12 10 11 12 17 17 17 17 16 15 15 15
18 20 17 16 13 17 16 14 13 12 12 12 12 12 13 13 13 13 14 13 12 12 12 13 13 13 13 13 14 12 12 13 13 11 11 12 13 15 15 15 15 15 14 15 15
14 12 11 16 14 14 14 13 13 12 12 12 11 11 11 12 12 12 12 12 12 12 12 12 11 12 12 12 12 12 12 12 12 12 12 13 13 14 15 15 14 14 14 14 15
16 14 12 11 11 14 12 12 12 11 11 11 12 10 10 10 11 11 11 11 11 11 11 11 9 10 9 11 11 11 12 12 13 13 13 14 13 16 15 14 13 14 13 13 14
7 8 14 8 12 14 12 12 11 10 10 11 11 10 10 11 11 11 11 11 10 10 10 10 9 8 8 11 11 11 13 14 14 14 14 12 13 14 12 12 13 13 13 13 14

GFSSW_925_temp_021.txt.gz
Temp
12 12 12 12 13 14 15 15 15 16 17 18 18 19 20 21 22 23 28 23 23 24 24 26 27 28 28 29 29 30 30 31 32 33 33 35 33 35 34 33 34 34 33 33 32
12 12 12 12 13 14 14 15 15 16 17 18 19 19 20 21 23 28 23 23 23 24 26 28 29 29 30 30 30 30 31 32 33 32 32 33 33 33 33 33 34 34 34 31 30
12 12 12 13 13 14 15 16 16 17 18 18 19 20 20 21 27 26 23 23 23 23 26 27 28 29 29 29 30 31 30 33 31 31 31 31 32 33 32 31 33 34 34 34 30
12 12 13 14 14 15 15 16 17 18 18 19 19 20 21 21 28 25 23 23 23 23 26 27 29 29 29 29 30 28 31 31 30 30 29 30 31 31 32 32 33 34 33 33 32
14 14 14 15 15 16 16 17 17 18 19 19 20 20 21 28 27 23 23 23 23 24 26 28 29 29 29 30 30 29 31 31 30 30 29 30 29 30 30 32 33 33 33 31 33
15 15 15 16 16 16 17 17 18 18 19 20 20 21 24 28 23 23 23 24 24 26 26 27 28 28 28 29 29 30 29 29 30 30 30 30 30 30 31 33 32 32 32 33 32
15 16 16 16 17 17 18 18 18 19 19 20 20 20 27 25 23 24 23 24 24 25 27 26 26 27 28 29 29 28 28 30 31 32 30 30 29 30 32 33 32 33 34 33 33
16 16 17 17 17 17 18 18 19 19 20 20 20 22 26 22 23 23 24 25 24 24 25 25 25 27 27 28 28 28 29 29 31 30 30 28 29 32 33 32 32 32 33 34 33
16 16 17 17 18 18 18 19 19 20 20 20 22 25 26 23 25 24 24 25 25 25 25 25 25 26 27 27 29 31 30 30 31 30 29 28 28 31 32 31 30 31 32 32 33
16 16 17 17 18 18 19 19 19 20 20 20 22 25 26 26 24 23 24 24 25 26 26 26 27 26 28 28 28 29 29 30 30 31 30 29 29 30 31 31 31 31 32 32 33
17 17 17 18 19 19 18 19 23 24 24 23 24 25 25 24 23 25 24 25 26 26 27 27 26 28 30 28 28 28 27 28 29 30 29 28 28 29 30 31 31 31 32 32 32
17 18 18 18 19 19 19 24 22 22 24 23 23 24 23 23 25 26 24 25 26 26 27 27 27 26 26 25 25 26 27 27 29 30 28 28 28 29 30 31 31 31 31 31 31
18 18 18 19 19 20 22 20 19 20 26 24 24 25 24 24 25 25 25 25 26 26 26 26 28 25 24 25 26 27 27 27 27 27 27 28 29 31 33 33 31 29 27 27 26
19 18 19 19 20 21 21 18 18 19 27 24 25 24 25 24 24 24 24 24 26 25 25 26 26 24 25 25 26 26 26 25 25 25 26 28 26 29 31 31 27 26 25 24 24
19 18 19 19 21 23 19 18 18 21 28 24 25 24 25 25 25 24 23 24 24 25 24 27 26 24 24 25 25 24 24 24 24 25 25 26 26 31 30 29 27 24 23 23 23
19 18 19 20 21 17 17 18 20 26 27 24 24 24 25 25 25 25 25 24 24 23 25 25 26 24 23 24 24 24 24 26 26 25 24 28 28 29 29 27 24 24 23 23 22
17 18 18 18 21 17 18 22 26 27 24 23 23 23 23 23 24 23 23 22 22 22 26 25 25 24 23 23 25 24 24 24 26 24 26 28 26 28 29 24 22 22 22 22 21
18 18 18 17 17 17 20 25 26 23 23 22 22 23 23 22 23 23 23 23 20 20 22 23 24 23 23 22 21 22 22 22 22 25 26 25 24 28 28 25 23 23 22 22 20
18 20 20 18 18 18 24 27 23 22 21 21 22 23 23 21 22 23 21 20 18 18 20 21 23 23 23 21 21 23 22 20 20 22 21 24 26 28 28 23 21 20 20 20 20
21 22 20 18 18 21 26 20 20 19 19 21 22 21 22 21 22 22 22 17 17 17 18 20 18 21 21 21 22 21 20 19 20 19 21 24 23 23 21 19 19 19 19 20 19
20 24 20 19 19 26 25 20 18 18 19 20 20 21 20 19 20 20 21 16 16 16 18 18 18 20 21 20 20 20 19 19 19 18 18 18 19 23 19 18 18 18 19 19 18
22 24 19 20 25 24 22 19 15 17 18 18 18 18 18 18 19 19 19 17 15 15 16 16 15 16 18 20 19 18 18 17 15 15 16 15 15 19 18 18 18 18 18 18 17
23 22 20 21 25 21 18 16 16 17 16 17 17 17 17 17 17 17 17 15 14 14 15 15 16 15 19 17 17 17 17 17 16 14 12 12 14 18 18 18 18 18 18 17 17
23 24 22 21 21 22 20 18 16 15 15 16 15 16 16 16 16 17 16 16 14 14 13 13 14 14 15 16 16 15 15 15 14 13 13 14 14 16 17 17 17 17 17 16 16
20 17 16 21 19 19 19 18 17 16 15 15 15 15 15 16 16 16 15 15 16 14 14 14 13 15 15 15 14 14 14 14 14 14 13 14 14 16 17 17 17 16 16 15 15
20 19 18 17 17 19 15 17 17 15 15 16 15 14 14 14 15 14 14 14 14 14 13 14 11 12 11 13 13 13 14 14 14 14 15 15 15 17 17 17 16 15 15 15 15
15 14 19 11 17 19 17 16 15 14 14 14 14 13 14 14 14 14 14 13 13 12 12 12 12 11 10 13 13 12 15 15 15 15 15 14 15 16 15 15 14 14 14 14 15

GFSSW_925_temp_024.txt.gz
Temp
12 12 12 13 13 14 14 15 15 16 17 18 19 19 20 21 23 23 26 23 23 24 25 25 27 29 29 29 29 30 27 27 29 30 30 32 32 33 34 33 32 33 32 32 31
12 12 12 12 13 14 15 15 16 16 17 18 19 19 20 21 22 27 24 24 24 24 26 28 29 29 28 30 28 28 27 29 31 31 29 30 30 31 31 31 31 31 33 32 31
12 12 12 13 13 14 15 16 16 17 18 19 19 20 20 21 24 25 24 24 24 24 25 27 28 29 29 29 29 29 27 30 30 30 30 29 29 31 30 28 30 30 31 32 30
12 13 13 14 14 15 16 16 17 17 18 19 19 20 21 21 27 23 24 24 24 25 26 28 29 29 29 29 31 28 29 30 30 30 29 28 29 28 28 28 30 30 31 31 28
14 14 14 15 15 16 16 17 17 18 19 19 20 20 21 25 26 24 24 24 24 26 27 28 28 29 28 30 30 29 29 30 30 29 29 29 27 28 28 29 30 30 30 30 29
14 15 15 16 16 17 17 17 18 18 19 20 20 21 21 27 24 24 24 25 25 26 27 28 28 28 27 28 28 29 28 28 28 29 29 29 28 28 29 30 30 30 30 29 29
15 16 16 16 17 17 17 18 18 19 20 20 21 20 25 24 24 25 24 25 25 25 27 27 26 27 27 27 29 28 26 27 28 29 29 28 27 27 29 30 30 30 30 29 29
16 16 16 17 17 18 18 18 19 19 20 21 21 21 25 23 24 24 25 26 25 25 25 25 25 26 26 27 27 28 27 26 31 30 27 27 25 27 30 30 29 29 28 28 28
16 16 17 17 18 18 18 19 20 20 21 21 21 24 25 24 25 25 25 26 25 26 25 26 26 26 27 25 26 27 27 28 29 30 29 28 25 28 29 29 28 28 28 28 28
16 17 17 18 18 19 19 19 20 20 21 21 23 24 26 26 25 24 25 25 26 26 26 26 26 25 25 26 25 26 26 27 26 28 28 27 26 28 28 28 27 28 28 28 29
17 17 17 18 18 19 19 19 21 23 25 24 25 26 26 25 24 26 25 26 26 26 26 27 24 25 26 25 26 26 26 25 27 29 27 26 26 27 28 27 27 27 25 24 24
18 18 18 18 19 19 19 23 22 22 23 24 24 25 24 24 26 26 25 26 26 25 27 26 24 26 26 26 25 25 25 25 27 28 26 25 25 26 27 26 24 23 22 22 22
18 18 19 19 20 19 22 21 20 21 24 24 25 25 24 25 26 25 26 26 25 25 27 25 27 26 26 25 25 26 25 25 24 25 25 25 26 27 25 24 23 22 21 21 20
19 19 19 19 19 22 22 20 20 20 25 24 25 25 25 25 24 25 25 24 26 25 25 25 26 25 25 25 26 23 25 24 24 23 22 25 21 24 24 23 22 21 20 20 19
19 19 20 20 21 23 20 19 20 21 26 24 25 25 26 26 25 24 24 25 24 24 24 25 25 24 23 24 24 23 24 23 23 22 22 24 22 26 25 22 21 21 21 20 19
19 19 19 20 21 19 19 19 20 23 25 24 25 24 25 25 25 25 25 25 25 23 24 24 26 25 23 24 24 24 23 23 23 22 21 24 24 25 24 21 20 20 20 20 19
18 18 19 20 21 19 19 21 24 25 25 24 24 24 24 24 25 24 24 21 20 20 23 24 25 24 23 22 24 22 21 20 23 21 21 24 23 25 21 21 19 19 19 18 18
18 18 19 19 19 19 21 23 25 25 23 23 23 24 24 22 23 24 23 22 19 19 20 22 23 23 23 22 20 20 21 20 20 21 20 22 21 23 21 19 19 18 18 18 17
18 20 21 19 19 19 22 24 21 22 22 21 23 24 23 23 22 23 21 20 18 18 18 20 22 23 22 21 21 21 20 19 18 20 19 20 24 22 20 18 18 17 18 17 17
19 23 21 20 19 20 23 21 20 20 20 22 23 22 23 22 22 22 23 18 18 17 18 19 16 21 21 21 21 20 20 18 18 17 18 21 20 20 17 16 17 17 17 17 17
19 23 21 21 21 22 23 20 19 19 20 20 21 22 21 20 20 21 21 16 17 17 17 18 17 19 20 20 19 18 18 18 18 17 16 15 17 19 16 16 16 17 17 17 16
22 24 21 22 24 24 21 20 15 19 20 19 19 19 19 19 19 20 20 17 15 16 16 16 14 14 17 19 18 17 17 18 15 15 14 12 13 17 16 16 17 17 17 16 15
23 23 22 23 23 20 19 17 18 18 17 18 18 17 18 18 17 18 18 15 15 15 14 14 15 13 17 17 17 17 17 17 16 13 12 11 12 17 16 16 17 16 16 15 15
22 22 22 23 23 21 20 19 16 16 16 17 17 17 17 18 18 17 17 16 14 14 14 13 13 14 13 14 15 14 15 15 14 11 12 12 13 15 15 15 16 15 15 14 14
20 18 17 21 20 20 20 20 18 17 17 17 16 16 15 16 17 17 16 16 16 14 14 13 12 14 14 14 14 13 13 14 13 13 12 12 13 14 15 15 15 15 14 14 14
19 20 19 18 19 20 17 19 19 16 17 17 16 16 15 14 15 14 15 14 14 15 14 14 11 12 11 13 13 13 14 14 14 14 14 14 14 15 15 15 15 13 13 13 13
17 17 17 13 19 20 18 18 17 16 15 16 15 14 15 14 13 13 13 13 13 13 12 12 11 11 10 13 12 11 14 15 15 15 14 12 13 14 13 12 12 12 12 13 12

GFSSW_925_temp_027.txt.gz
Temp
13 13 13 14 13 14 14 15 15 16 17 18 19 20 20 21 23 23 23 24 24 25 25 26 26 27 27 26 27 27 22 23 27 28 27 27 27 28 28 30 30 31 31 30 30
12 12 12 13 13 14 14 15 16 17 17 18 19 19 20 21 22 23 24 24 24 25 26 26 26 27 24 27 25 23 21 25 27 28 28 27 27 26 27 26 28 28 28 29 29
12 12 12 13 13 14 14 15 16 17 18 18 19 20 20 21 21 23 24 24 25 25 25 25 27 26 27 27 27 25 23 26 27 28 29 27 26 27 26 25 26 27 28 28 27
12 12 13 13 14 14 15 16 17 18 18 19 19 20 21 21 24 23 24 24 25 25 25 26 26 26 27 27 27 27 26 26 26 28 28 27 27 26 26 25 25 25 26 28 25
12 13 14 14 15 16 16 17 18 18 18 19 20 20 21 21 23 24 24 25 25 25 26 26 25 25 25 25 26 27 26 26 26 25 25 26 25 25 25 25 25 26 26 26 26
13 14 15 16 16 17 17 18 18 19 19 20 20 20 20 24 24 24 25 25 25 25 26 26 24 25 25 25 25 26 25 24 25 25 25 26 25 26 26 25 26 26 25 25 25
15 15 16 16 17 17 18 18 19 19 20 20 20 20 21 23 24 24 24 25 25 25 24 25 25 24 23 24 24 26 24 23 23 25 25 27 25 27 25 25 25 26 25 25 27
16 16 17 17 17 18 18 19 19 20 20 20 21 21 22 24 24 24 25 25 25 25 25 25 25 24 24 24 24 25 24 23 25 28 26 28 23 26 25 26 26 25 24 25 19
16 17 17 18 18 19 19 19 20 20 21 21 21 21 23 24 24 25 25 25 25 25 25 25 25 23 23 22 20 22 23 24 23 25 27 26 23 24 25 25 24 24 23 21 20
17 17 17 18 18 19 19 20 20 21 21 21 22 22 24 24 24 24 25 25 25 24 24 24 22 21 19 19 20 22 22 23 22 25 24 23 22 23 23 25 21 20 20 19 19
17 17 18 18 19 19 19 20 19 19 22 22 23 24 24 25 24 24 25 25 24 24 23 23 21 20 23 24 24 23 23 21 22 24 23 22 21 23 22 20 19 18 18 17 18
18 18 18 19 19 19 19 18 20 20 21 24 24 24 24 24 24 24 25 24 24 22 22 21 21 23 25 25 24 23 22 20 22 23 23 21 22 20 20 19 18 17 17 17 17
18 18 19 19 20 19 20 19 20 21 20 23 24 24 23 23 23 23 24 22 23 23 23 22 24 25 25 23 23 22 22 21 21 21 21 22 20 20 20 19 19 17 17 16 16
19 19 19 19 20 22 20 19 20 20 19 22 23 24 24 24 23 24 24 23 23 23 23 22 24 24 22 22 21 20 22 21 21 19 19 20 17 20 18 18 17 16 15 14 14
19 19 19 19 20 20 19 20 20 21 21 23 23 25 25 24 23 23 24 23 22 21 21 21 23 23 22 22 22 20 21 20 20 18 20 20 18 18 18 17 16 16 16 15 14
18 19 19 19 20 19 19 20 20 20 23 22 24 24 23 24 24 24 23 21 22 21 21 20 23 23 22 22 22 21 20 19 18 17 17 20 19 19 17 17 15 15 15 15 15
18 19 19 20 19 19 20 19 19 20 23 22 22 23 22 21 23 23 19 16 16 17 17 19 21 22 22 20 19 18 16 15 18 17 17 20 20 16 16 15 15 15 15 15 14
19 19 20 20 20 20 20 17 22 22 21 23 22 22 21 20 22 22 19 17 16 16 15 17 19 21 21 20 19 17 18 15 17 16 16 19 18 16 16 15 15 16 15 15 14
19 20 20 20 20 20 16 16 17 19 19 19 20 21 21 21 20 20 17 16 15 14 15 14 18 19 19 20 19 18 16 17 16 16 15 16 17 17 15 14 14 15 14 14 14
19 20 20 20 20 20 16 17 17 18 18 19 20 20 19 19 19 18 17 16 16 15 14 16 14 17 19 20 19 19 18 15 13 14 13 14 17 16 14 13 14 15 15 14 15
20 16 21 21 20 15 15 17 17 18 18 18 17 19 18 17 18 18 16 15 15 14 14 14 14 14 16 17 16 15 15 15 14 13 12 11 12 13 13 14 14 15 15 14 12
19 17 22 22 16 13 14 18 16 17 17 17 17 16 17 17 17 18 16 14 14 14 13 13 11 11 13 16 17 16 16 15 9 12 10 6 11 13 13 15 15 15 15 13 13
15 16 23 22 16 13 16 15 15 16 15 17 16 16 16 16 16 16 14 13 14 13 12 12 11 8 14 14 15 14 15 14 12 8 8 7 12 15 14 14 15 15 13 12 12
14 16 14 13 13 14 15 16 14 15 15 16 15 16 16 16 16 15 15 14 13 13 14 12 10 10 9 12 12 11 12 12 12 4 10 11 11 13 13 14 14 11 11 11 11
12 13 13 13 14 15 16 17 15 14 15 16 15 14 14 15 15 15 15 14 12 14 12 10 9 11 11 12 12 11 11 12 11 11 9 11 11 13 13 11 10 10 11 11 11
12 13 11 13 15 16 16 17 16 15 15 15 15 14 14 13 14 13 12 13 12 11 13 11 9 10 9 11 11 11 11 11 11 11 11 12 11 12 12 9 10 10 10 11 11
13 15 11 12 14 15 14 16 15 14 14 14 13 13 13 12 11 11 10 10 10 11 10 10 8 7 5 10 10 8 11 12 12 13 11 10 11 10 10 10 10 11 10 10 11

GFSSW_925_temp_030.txt.gz
Temp
13 13 14 14 14 14 14 14 15 15 16 18 19 19 20 21 23 23 23 24 24 25 25 26 27 26 26 25 26 22 21 22 25 27 27 27 27 27 27 27 26 28 29 28 29
12 13 12 13 13 14 14 15 15 16 17 18 18 19 20 21 22 23 24 24 24 25 26 25 25 26 24 25 24 22 20 23 24 27 27 27 27 26 26 23 25 26 26 28 28
12 12 12 13 13 14 14 15 16 17 18 18 19 19 20 21 22 23 24 24 25 25 25 24 25 25 26 25 25 23 22 23 26 27 26 27 26 27 26 24 24 26 26 26 26
12 12 12 13 13 14 15 15 16 17 18 19 19 20 21 21 24 24 24 24 24 25 25 25 25 25 25 25 26 25 24 25 26 26 25 26 26 25 25 25 24 24 24 25 25
12 12 13 14 14 15 16 16 17 18 19 19 19 20 20 22 23 24 24 24 25 25 25 25 24 24 25 24 24 25 25 25 25 23 23 25 24 25 24 24 22 23 23 21 20
13 13 14 15 15 16 16 17 18 19 19 19 20 20 20 23 24 24 24 25 25 25 24 24 23 24 24 24 24 24 24 23 23 23 24 25 24 26 25 24 23 25 19 17 17
14 15 15 16 16 17 17 18 19 19 19 19 20 20 21 23 24 24 24 24 25 25 24 24 24 23 23 23 23 24 23 22 24 25 26 24 25 25 24 25 25 20 16 17 18
15 16 16 17 17 18 18 19 19 20 20 20 20 20 21 24 24 24 24 25 25 25 25 25 25 23 23 23 22 23 22 22 24 23 26 26 22 24 23 22 21 17 16 17 17
16 16 17 17 18 18 19 19 20 20 20 21 21 21 22 24 24 24 24 24 25 25 25 25 24 22 22 20 19 19 22 23 22 23 23 25 22 22 21 21 17 16 16 17 16
16 17 17 18 18 19 19 20 20 20 21 20 21 21 23 23 24 24 24 24 24 23 23 23 19 19 18 18 20 22 21 22 22 23 22 22 20 17 18 17 16 14 13 15 15
17 17 18 18 19 19 20 20 19 19 21 22 22 23 23 24 24 24 24 24 23 23 22 22 20 20 21 22 22 22 22 20 20 23 21 22 17 17 17 16 15 14 14 14 14
18 18 18 19 19 20 20 19 19 20 21 23 23 23 24 23 23 23 24 23 23 22 22 20 20 22 22 24 23 22 21 20 20 21 22 20 17 17 17 16 15 14 13 14 14
18 18 19 19 19 20 19 19 20 21 19 22 23 23 23 23 22 22 23 22 22 22 22 20 23 23 23 22 21 21 21 21 20 19 20 20 17 17 17 16 16 14 14 14 14
18 19 19 19 20 19 19 19 20 20 18 22 23 23 24 23 22 24 23 22 22 22 20 21 23 22 22 22 21 20 21 21 20 18 18 20 16 16 16 15 14 13 12 13 13
18 19 19 19 19 19 19 19 20 20 21 22 23 24 24 23 23 23 23 22 21 21 20 21 22 22 22 21 21 20 20 20 19 17 19 18 16 16 15 14 14 14 14 14 14
18 19 19 19 19 19 19 20 20 19 22 22 23 23 23 22 23 22 18 19 19 20 20 19 21 21 21 21 20 20 19 17 15 15 15 17 17 15 14 15 15 14 14 14 14
18 19 19 19 19 19 19 19 18 19 22 21 21 22 21 20 22 21 16 15 15 18 16 17 20 21 21 20 19 17 15 15 18 16 17 18 17 15 14 14 15 15 14 13 13
19 19 19 20 19 20 20 18 22 20 20 21 20 21 20 20 21 18 17 15 14 14 14 15 18 18 19 19 19 17 16 15 18 16 15 16 16 14 14 14 15 15 14 13 12
19 19 20 20 19 20 15 16 17 18 18 18 20 20 20 20 20 17 15 15 14 13 15 14 17 17 19 19 19 18 15 16 15 14 13 14 14 14 13 14 14 13 13 12 12
19 19 20 20 19 19 14 15 16 18 17 18 19 20 19 17 19 18 16 14 15 14 14 15 13 16 17 19 17 18 17 15 12 15 14 13 14 13 12 13 12 13 12 12 12
19 15 21 20 20 13 15 16 17 18 17 18 17 17 17 17 17 17 14 13 14 14 13 13 13 15 15 15 16 14 15 14 13 11 12 10 12 12 11 13 12 13 13 13 11
17 16 21 20 15 10 13 16 17 16 15 16 15 16 16 16 17 16 14 14 14 14 13 12 10 10 13 14 15 16 15 12 9 12 9 6 9 12 12 13 13 13 12 11 11
13 14 21 20 15 11 15 15 14 15 15 15 15 15 16 16 16 15 13 13 13 13 12 12 10 9 15 13 14 13 14 12 11 7 7 7 12 13 14 14 13 10 10 10 10
12 16 13 10 10 12 14 15 14 14 15 14 15 15 16 15 15 15 13 12 13 13 14 12 9 10 10 13 11 10 12 11 11 4 9 10 12 13 13 12 10 9 9 8 9
9 12 12 13 14 14 15 15 14 14 15 15 14 14 14 15 14 14 14 13 12 14 11 10 9 9 10 10 10 11 10 10 9 10 8 11 10 12 12 10 9 9 9 9 10
12 12 10 11 13 15 13 16 15 14 14 15 14 13 14 13 13 13 13 13 12 11 10 9 9 9 8 10 9 9 10 10 10 10 10 11 10 11 10 9 8 8 9 10 11
12 12 11 11 12 13 13 16 15 13 13 14 13 12 13 13 11 11 10 10 11 10 9 9 8 6 5 8 8 8 9 10 11 11 10 9 11 10 9 9 10 10 10 10 10

GFSSW_925_temp_033.txt.gz
Temp
13 13 14 14 14 14 14 14 15 15 16 17 18 19 20 21 22 23 23 24 24 25 25 26 26 26 26 24 24 21 21 22 25 25 26 26 26 27 25 25 24 26 27 26 26
13 13 13 13 14 14 14 14 15 15 17 17 18 19 20 21 22 23 24 24 24 25 25 24 24 24 23 25 23 21 20 23 24 26 26 25 26 26 26 22 25 25 25 27 25
12 12 12 13 13 13 14 14 15 16 17 18 18 19 20 21 22 23 24 24 24 24 24 24 24 24 25 24 24 22 22 24 25 25 25 25 24 25 25 24 24 24 22 21 24
12 12 12 13 13 14 14 15 16 17 17 18 19 20 21 21 24 24 24 24 24 24 25 24 24 24 24 25 24 24 24 24 25 25 23 25 25 25 25 24 21 19 17 16 16
11 12 13 13 13 14 15 16 17 17 18 18 19 20 20 22 23 24 24 24 25 25 24 24 23 23 24 23 23 24 24 24 23 21 22 23 23 24 24 19 17 17 17 16 16
12 14 14 14 15 15 16 16 17 18 18 19 19 20 20 23 23 24 24 24 24 25 24 23 23 23 23 23 23 23 22 21 22 22 22 24 24 24 22 18 17 16 16 15 15
14 14 14 15 15 16 17 17 18 18 19 19 20 20 21 23 23 24 24 24 24 24 23 24 23 23 22 23 22 22 22 21 25 22 24 23 25 23 19 17 16 15 15 15 15
15 15 15 16 16 17 18 18 18 19 19 20 20 20 21 23 24 24 24 24 25 24 24 24 24 22 22 22 20 21 20 21 24 22 23 24 22 17 17 16 14 14 12 14 14
15 16 16 16 17 18 18 19 19 20 20 20 20 20 22 24 24 24 24 24 24 24 24 24 23 20 20 20 19 18 21 22 21 22 21 22 18 16 16 16 14 12 12 14 13
16 16 17 17 18 18 19 19 20 20 20 20 20 21 23 23 24 24 24 24 23 23 22 22 17 18 17 18 20 21 21 21 21 21 20 16 15 15 15 14 13 12 11 12 13
17 17 17 18 18 19 19 20 19 18 21 21 21 22 22 23 24 24 24 24 23 21 21 20 19 20 20 20 21 22 21 20 19 21 20 15 15 15 15 13 13 12 12 12 13
17 17 18 18 19 19 19 18 19 20 20 22 22 22 23 23 23 23 24 23 22 21 21 19 20 21 21 22 22 21 20 19 19 20 20 15 15 16 15 15 14 13 12 13 13
17 18 18 19 19 19 19 19 19 20 18 22 22 22 23 23 22 22 22 21 21 22 21 20 22 22 23 20 21 20 20 20 19 18 18 15 15 15 15 15 14 13 13 13 13
18 18 18 19 19 19 19 19 19 20 17 21 22 23 23 22 22 23 22 22 21 21 20 20 22 22 21 21 20 19 20 20 19 18 18 18 15 14 14 15 14 13 12 13 14
18 18 19 19 19 19 19 19 20 20 21 22 22 24 22 22 22 21 20 21 20 20 20 21 21 21 21 21 21 19 19 18 19 17 17 17 15 14 13 14 15 14 13 13 12
18 19 19 19 19 19 19 20 20 19 21 21 22 22 22 21 22 20 17 17 18 19 18 19 19 20 20 20 20 18 18 16 14 14 15 16 16 13 13 13 14 14 13 12 12
18 19 19 19 19 19 19 19 18 19 21 21 21 21 20 20 21 18 15 13 14 19 15 16 19 19 19 19 18 16 14 15 17 15 16 16 16 14 13 13 14 15 13 12 11
19 19 19 19 19 19 19 18 21 19 19 20 20 20 20 19 19 17 16 14 14 14 13 15 19 17 17 18 18 17 15 14 18 16 14 14 15 14 13 13 14 14 12 11 11
19 19 20 19 19 19 15 17 18 18 18 18 20 20 19 19 19 16 14 14 14 13 16 15 17 16 18 18 18 17 15 15 15 13 12 13 14 13 13 12 13 11 11 11 10
19 19 20 19 19 19 14 16 16 17 17 18 19 18 17 18 18 16 15 14 14 13 13 14 14 16 16 17 16 17 16 15 11 15 14 12 12 13 11 11 11 10 10 10 10
19 14 19 19 19 13 15 14 16 17 17 17 17 17 17 17 17 16 14 13 14 14 12 13 12 15 15 15 15 14 14 12 12 11 13 11 12 12 11 11 11 10 10 10 9
16 16 19 19 14 8 13 16 16 15 14 16 15 16 16 16 16 15 14 14 13 14 13 12 10 11 14 14 13 14 14 12 10 12 8 5 8 12 10 10 11 10 10 10 9
13 13 18 19 15 11 14 14 14 15 14 15 15 15 15 15 16 14 13 13 13 13 11 11 10 10 14 13 14 13 13 11 8 6 6 8 10 10 9 10 12 10 9 8 9
12 16 12 8 8 12 14 14 14 14 14 14 14 15 15 15 15 13 12 12 13 13 14 11 8 11 12 14 11 11 11 10 9 4 7 9 13 14 14 11 11 11 8 8 8
8 11 12 13 13 13 14 14 14 14 14 14 14 14 14 14 14 14 12 11 12 13 11 9 9 9 9 9 9 9 10 10 9 8 8 12 10 12 11 11 11 8 8 8 9
12 12 8 10 12 15 13 15 14 14 14 14 14 13 13 14 13 12 12 11 11 11 10 8 9 8 8 9 9 8 9 9 10 10 10 10 10 12 11 8 8 8 8 10 10
10 11 11 10 12 13 13 15 15 13 13 13 13 12 13 12 11 11 10 9 10 9 8 8 7 6 6 7 7 9 10 10 9 9 10 9 11 10 9 8 8 9 8 9 9

GFSSW_925_temp_036.txt.gz
Temp
13 13 13 13 14 14 14 14 14 15 15 16 17 18 19 21 22 23 23 23 23 24 25 26 26 26 26 23 22 21 21 22 25 24 26 24 24 26 25 24 23 24 23 21 22
13 13 13 13 14 14 14 14 15 15 16 17 18 19 20 21 22 23 23 23 24 24 25 24 23 24 22 24 22 20 20 24 23 24 25 24 24 24 25 22 23 22 18 17 19
12 12 13 13 13 14 14 14 15 15 16 17 18 19 20 21 21 22 23 24 24 24 24 24 24 24 24 24 23 21 23 23 25 24 23 24 24 24 23 21 16 16 15 15 15
12 12 12 12 13 13 14 14 15 16 17 18 18 20 21 21 24 23 24 24 24 25 25 24 23 24 23 24 23 24 23 23 24 23 22 23 23 19 15 15 15 15 15 15 14
12 12 12 12 13 14 14 15 16 17 17 18 19 20 21 21 22 23 24 24 24 25 24 23 23 23 24 22 23 23 23 22 22 20 21 21 20 18 15 15 15 15 15 14 14
11 12 12 13 14 15 15 16 17 17 18 19 19 20 20 23 23 23 24 24 24 24 23 23 22 22 22 22 23 21 21 20 22 22 22 23 21 19 16 15 14 14 13 13 13
11 11 14 15 15 15 16 17 17 18 18 19 20 20 21 22 23 24 24 24 24 24 23 23 23 23 21 23 21 21 22 21 21 21 23 21 18 15 16 15 13 12 11 13 13
11 14 15 15 16 16 17 17 18 19 19 20 20 20 21 23 23 24 24 24 24 24 24 23 23 21 22 21 19 20 19 21 22 21 21 23 19 14 14 14 12 12 11 12 12
15 16 16 16 16 17 17 18 19 19 20 20 20 20 22 23 23 23 24 23 24 24 24 23 22 19 19 19 18 17 20 22 21 20 21 19 16 14 14 14 12 11 11 12 12
16 16 16 16 17 17 18 19 19 19 20 20 20 21 22 22 23 24 24 24 23 22 21 20 16 17 16 17 20 21 21 21 20 20 15 14 14 14 14 13 12 11 11 11 12
16 16 16 17 17 18 18 19 18 18 20 21 21 21 22 23 23 23 23 23 22 19 20 19 18 20 20 20 21 21 20 20 19 20 15 14 14 15 14 13 12 12 12 12 12
17 17 17 17 18 18 18 18 18 19 20 21 21 21 22 22 22 21 23 22 21 20 20 18 20 21 21 21 21 21 20 18 19 19 15 14 14 15 15 14 14 13 13 13 13
17 17 18 18 18 18 19 18 19 20 18 22 22 22 22 22 21 21 21 21 21 21 20 19 21 21 22 20 20 20 19 19 19 18 15 14 14 14 15 14 14 13 13 13 12
17 18 18 18 18 18 18 19 19 20 17 21 22 22 22 21 21 21 20 21 20 20 20 20 20 21 21 21 19 19 19 19 19 17 16 16 15 13 13 14 14 13 11 11 11
18 18 18 18 19 18 19 19 20 20 21 21 22 23 22 22 21 20 18 20 19 19 19 20 20 20 20 20 20 19 18 17 18 16 16 15 15 14 12 13 14 14 12 11 11
18 18 18 18 19 19 19 19 20 19 21 21 21 21 21 20 21 19 17 16 17 18 18 18 18 20 20 19 19 17 18 14 13 13 15 16 15 14 11 12 13 14 12 11 11
18 18 19 19 18 19 19 18 18 19 20 20 20 20 20 19 18 16 15 13 15 18 17 17 18 17 18 19 17 15 14 15 17 15 17 15 15 14 12 11 12 14 13 11 10
18 19 19 19 19 19 19 17 21 19 19 19 19 20 20 18 17 15 15 14 13 14 13 16 19 17 16 18 17 16 15 14 19 16 14 13 14 15 12 12 12 13 11 10 9
19 19 19 18 18 19 15 17 18 18 17 18 19 19 18 19 17 15 14 13 13 12 16 15 17 16 16 17 17 16 14 14 14 12 12 12 13 13 12 11 12 12 10 9 9
19 19 18 18 18 19 15 16 16 16 17 17 18 18 17 18 18 17 14 14 14 13 12 13 16 15 15 16 15 16 14 14 11 15 14 12 12 13 10 10 10 10 9 9 9
19 14 18 19 18 13 16 14 16 16 16 17 17 17 17 17 17 15 14 13 14 13 12 12 13 16 15 14 14 14 13 11 11 10 13 11 12 11 12 11 10 9 9 9 9
15 16 17 18 14 7 12 15 16 15 14 15 15 16 16 16 16 14 14 14 13 13 13 11 10 12 15 14 12 14 14 12 10 12 7 5 9 11 10 10 10 10 9 9 8
12 13 17 18 15 11 13 14 14 15 14 15 15 15 15 15 16 14 13 12 12 13 12 11 10 11 15 13 13 13 12 10 7 6 6 8 11 10 10 10 9 10 8 7 8
11 15 12 7 7 11 13 14 14 14 14 13 14 14 15 14 13 13 12 12 12 12 13 11 8 11 12 14 11 12 11 10 9 4 8 9 13 13 10 10 9 9 8 7 7
8 11 11 14 12 12 13 13 14 14 14 14 14 14 14 14 14 13 11 11 11 13 10 9 10 8 8 9 9 9 10 9 8 8 10 14 10 12 12 9 9 8 7 7 8
12 11 7 9 11 14 13 14 14 14 14 14 14 13 13 14 13 12 11 10 10 10 10 7 9 8 8 8 8 8 9 9 10 10 9 10 10 12 11 9 8 7 6 7 8
9 10 10 9 11 13 13 14 14 13 13 13 13 11 12 12 12 11 10 8 10 8 8 7 7 6 7 6 7 9 10 9 8 8 9 9 11 10 9 8 8 7 6 7 7

GFSSW_925_temp_039.txt.gz
Temp
13 13 13 13 13 14 14 14 15 15 15 16 17 19 20 21 22 22 22 23 23 24 25 26 26 26 25 23 22 21 24 25 25 25 26 24 26 25 24 25 24 20 18 17 16
13 13 13 13 14 14 14 14 15 15 15 17 18 19 20 21 22 22 23 23 24 24 25 25 24 24 23 24 22 22 23 25 24 24 25 24 24 24 25 21 20 19 17 16 17
12 12 13 13 14 14 14 14 15 15 16 17 18 19 20 21 21 22 23 23 24 24 25 25 24 24 24 23 23 22 25 23 24 24 23 23 21 19 21 19 16 16 16 16 16
12 12 12 13 13 14 13 14 15 16 17 18 19 20 20 21 23 23 23 24 24 25 25 24 23 24 23 24 22 25 23 23 24 22 22 22 20 17 16 16 16 16 15 16 16
11 12 12 13 13 13 14 15 16 17 17 18 19 20 20 21 22 23 23 24 24 25 23 23 23 23 24 23 23 23 23 22 22 21 20 20 18 17 16 16 15 15 15 15 16
11 12 12 13 13 14 15 16 17 17 18 19 19 20 20 22 23 23 24 24 24 24 23 22 22 22 22 22 23 21 21 21 21 22 20 18 17 18 16 15 15 15 15 15 15
11 11 14 12 14 15 16 16 17 18 18 19 19 20 21 22 23 23 24 24 24 24 22 22 22 23 21 22 20 21 23 22 21 21 21 19 18 15 16 15 15 15 15 15 14
12 13 10 13 15 16 17 17 18 18 19 19 20 20 21 23 23 23 24 24 24 24 23 23 23 20 21 20 20 21 21 23 21 21 21 22 19 15 15 15 15 15 15 15 15
11 10 13 15 16 17 17 18 18 19 19 20 20 20 21 23 23 23 23 23 23 23 23 23 21 19 20 20 21 20 23 22 22 19 20 20 17 15 15 15 15 14 15 15 16
11 14 16 16 17 17 18 18 18 19 20 20 20 21 22 22 23 23 23 23 22 21 21 20 18 19 18 21 23 21 22 21 21 20 18 17 15 15 15 14 14 14 14 15 15
15 16 16 17 17 18 18 18 18 18 20 20 20 21 21 22 23 22 22 22 21 20 20 18 21 21 21 20 20 20 20 20 20 19 18 16 15 15 15 14 14 15 15 15 15
17 17 17 17 17 17 18 18 18 19 19 20 20 21 22 22 22 21 22 22 21 20 20 20 21 20 20 20 21 20 20 20 19 18 18 15 16 15 15 15 15 15 15 15 15
17 17 17 17 17 18 18 18 18 19 18 21 21 21 21 22 20 20 21 20 20 20 19 20 21 20 21 20 20 19 19 19 20 17 15 15 16 15 15 15 15 15 14 14 14
17 17 18 18 18 18 18 18 19 19 17 21 21 22 22 20 20 19 19 20 20 20 19 20 20 21 20 20 19 19 19 19 19 18 19 16 21 14 15 15 15 15 14 14 14
18 18 18 18 18 18 18 19 19 20 21 21 21 22 21 21 20 19 17 19 19 19 19 20 19 19 20 20 19 20 17 18 18 17 17 16 18 18 14 14 15 15 14 14 14
18 18 18 18 18 18 19 19 19 19 21 20 20 21 21 19 19 18 17 16 17 17 18 18 17 19 19 18 18 17 17 15 14 15 18 17 17 20 15 15 15 15 14 14 14
18 18 18 18 17 18 19 18 19 19 20 20 20 20 19 18 18 16 15 14 16 19 18 18 18 17 17 19 17 17 17 20 20 19 21 16 16 20 15 14 15 15 15 14 13
18 18 18 18 18 18 19 18 21 19 19 18 19 19 19 17 16 15 15 15 13 14 15 18 19 17 16 17 17 16 16 19 21 20 18 14 18 20 14 14 14 14 13 12 13
18 18 18 17 18 18 16 18 18 18 17 18 19 19 18 18 17 15 13 14 13 12 17 16 18 16 15 16 16 16 17 15 15 13 16 16 16 16 13 13 12 13 12 12 12
19 18 17 18 18 18 16 17 16 16 16 17 18 18 18 17 18 17 15 14 13 12 12 13 17 14 16 15 15 16 14 16 15 19 18 17 15 18 13 13 13 13 13 12 12
19 14 17 18 18 13 16 15 15 15 15 17 17 17 17 17 17 16 15 13 13 13 12 12 14 16 14 15 15 15 15 12 14 14 17 16 18 15 15 14 14 13 12 12 12
15 16 17 18 14 7 13 15 15 15 14 15 15 16 16 15 16 15 15 13 13 13 13 11 11 15 16 13 12 13 14 14 16 15 10 11 14 13 13 13 12 13 12 11 10
12 12 16 17 16 11 12 14 14 15 13 15 15 14 14 15 16 14 13 11 12 12 12 12 12 16 17 14 13 13 12 10 9 9 10 14 18 12 11 11 12 12 11 11 10
11 15 12 7 7 11 13 14 14 13 13 13 13 14 14 14 13 13 12 12 12 12 13 11 10 14 16 15 12 13 11 10 12 11 12 14 18 18 13 12 12 12 11 10 9
8 11 10 14 12 12 13 13 14 14 13 13 13 14 14 14 13 13 11 11 11 13 10 10 12 9 9 10 10 11 12 10 11 12 14 17 13 15 14 13 12 11 10 9 10
12 11 7 8 11 14 12 13 14 13 13 14 14 13 13 14 13 13 11 10 11 10 10 7 11 8 10 8 9 9 10 10 11 11 10 12 12 14 13 11 10 10 9 9 9
9 10 10 9 10 13 13 13 14 13 12 13 13 11 12 12 12 10 9 8 10 9 9 8 8 8 10 7 8 11 11 12 10 9 12 12 14 11 10 10 10 9 9 8 8

GFSSW_925_temp_045.txt.gz
Temp
13 13 14 13 14 14 14 15 15 15 16 16 17 19 20 22 23 24 29 24 24 25 26 27 28 30 30 31 30 31 32 32 31 31 30 31 31 31 31 29 27 27 26 25 25
13 13 13 13 14 14 14 15 15 16 16 17 18 19 21 22 22 28 24 24 24 25 27 29 31 31 32 31 31 32 32 30 31 31 31 30 30 29 30 29 27 26 26 25 25
12 13 13 13 14 14 14 15 15 16 16 17 18 19 21 21 26 28 24 24 24 24 26 28 29 31 31 31 31 32 31 30 29 30 29 30 28 27 29 26 24 24 25 25 25
12 12 13 13 14 14 14 15 15 16 16 17 18 20 21 20 27 26 24 24 25 25 27 29 31 31 31 31 31 31 30 30 28 28 28 29 28 25 25 23 23 23 24 25 25
11 12 12 13 13 13 14 15 15 16 16 17 18 20 20 25 27 24 24 24 25 26 28 29 31 31 31 31 31 31 29 29 27 27 27 27 26 24 23 23 23 23 24 24 24
11 11 12 12 13 14 14 15 15 16 17 18 18 19 21 27 24 24 24 25 25 27 28 29 30 30 31 30 30 30 29 28 27 27 26 26 24 24 22 23 23 23 23 23 23
11 11 12 12 13 13 15 15 16 17 17 18 19 19 26 26 24 25 25 24 25 26 27 27 28 29 30 29 28 29 29 28 28 27 26 27 25 25 23 23 23 24 23 23 23
10 11 11 12 13 14 15 16 17 17 18 19 20 20 27 24 25 25 25 26 25 25 26 25 27 28 29 28 29 29 30 29 28 28 26 25 28 24 23 23 24 24 23 22 23
10 11 12 13 14 15 16 17 17 18 19 19 20 23 26 24 26 25 25 26 26 25 25 25 27 28 28 29 30 30 30 31 27 27 28 26 27 24 23 23 23 24 24 23 22
12 13 14 15 15 15 16 17 18 19 20 19 22 26 25 27 25 24 25 25 26 26 27 27 28 29 29 30 29 30 31 31 29 27 26 27 27 24 23 23 23 24 24 23 23
14 14 15 15 16 16 17 18 22 24 24 26 27 26 26 25 24 26 25 26 27 27 28 28 28 29 31 30 29 29 29 29 30 27 24 26 27 25 23 22 23 23 24 23 23
15 16 16 16 16 17 17 24 23 23 24 24 25 26 25 26 26 26 26 27 27 28 28 28 28 28 27 27 27 28 28 29 29 26 24 27 27 27 24 22 23 23 23 23 23
16 16 16 16 17 18 21 22 20 21 27 25 25 26 26 26 26 26 26 27 27 27 28 28 27 26 26 26 26 27 27 28 27 26 26 24 26 27 25 23 23 23 23 23 23
16 17 17 17 18 21 22 20 20 20 27 24 25 25 26 26 25 24 23 25 26 27 27 28 26 25 26 26 26 27 26 25 25 25 27 25 27 26 25 22 22 22 22 22 22
17 17 17 17 21 23 20 19 20 22 27 25 25 25 26 26 25 24 22 25 26 27 26 26 25 25 25 26 25 25 23 24 24 24 26 27 24 28 25 23 22 22 22 22 22
17 17 17 18 20 19 19 20 22 26 26 24 25 25 25 25 25 24 25 25 24 24 25 26 24 25 25 24 24 23 23 24 24 24 24 28 26 30 25 25 25 24 23 23 22
17 17 18 19 23 18 19 23 26 26 25 24 25 25 26 25 25 24 24 25 25 25 25 25 24 23 23 23 23 23 24 26 25 24 27 26 25 28 27 25 26 25 24 23 22
18 18 18 18 18 18 22 26 26 26 27 24 24 24 25 25 24 24 24 25 22 23 25 26 25 23 23 24 24 25 25 26 25 27 28 24 25 27 24 24 24 24 23 22 21
18 19 20 18 19 19 25 26 27 26 25 24 24 24 25 24 23 24 24 24 22 21 24 26 25 21 21 22 22 24 23 23 24 27 25 28 27 24 23 22 23 23 22 21 20
21 22 21 19 19 22 26 26 25 22 22 23 25 25 26 25 23 24 24 21 20 19 20 23 24 22 21 21 21 22 22 23 24 24 25 28 28 27 23 22 22 22 21 21 20
21 24 20 20 20 25 26 24 22 20 20 22 24 24 25 24 24 25 24 19 19 19 19 21 22 21 20 21 24 21 23 22 22 24 25 25 27 26 25 25 23 22 22 21 21
23 24 20 19 25 25 26 22 16 20 20 21 21 22 23 23 23 23 23 21 17 19 21 20 21 23 24 20 19 21 23 23 23 24 24 22 23 26 24 23 22 23 23 22 22
24 24 20 21 25 25 21 20 20 20 20 20 21 20 21 22 22 21 20 16 16 18 19 19 22 23 22 20 19 20 22 22 22 20 20 22 24 24 22 22 22 20 21 20 20
24 24 23 24 23 25 23 22 20 18 19 20 20 20 20 21 20 21 20 16 16 17 14 16 20 22 23 22 20 21 21 20 21 20 22 23 24 26 25 23 23 22 21 20 19
23 23 20 24 24 23 23 22 21 20 19 19 20 20 21 22 21 21 20 17 16 15 16 18 20 21 21 21 20 20 20 21 20 20 21 22 22 23 23 22 21 20 19 18 18
24 23 21 22 22 23 18 23 22 20 21 20 20 20 20 21 21 21 20 20 20 17 17 17 18 18 19 20 17 17 19 19 20 20 20 21 20 22 20 20 20 20 19 18 17
18 18 22 16 23 23 23 22 21 21 18 19 20 20 20 19 18 18 18 18 18 18 18 17 17 17 18 18 19 19 21 21 21 21 20 19 21 21 19 19 19 19 18 17 16

GFSSW_925_temp_048.txt.gz
Temp
13 13 13 14 14 14 14 15 15 15 16 17 17 18 20 21 24 23 27 24 25 26 27 27 29 30 31 31 31 31 29 28 31 31 29 31 31 30 29 27 26 26 24 26 26
13 13 13 13 13 14 14 15 15 15 16 17 17 18 20 21 21 25 25 25 25 25 27 29 31 31 30 32 31 30 29 30 31 31 30 30 29 28 29 27 25 25 25 26 26
13 13 13 13 13 14 14 15 15 15 16 17 17 18 20 20 23 26 25 25 25 26 26 28 29 31 31 31 32 31 29 29 30 29 29 30 27 27 27 24 23 23 24 25 25
12 12 13 13 13 13 14 15 15 15 15 17 17 18 20 20 26 25 25 25 26 26 27 29 30 31 31 31 32 29 30 30 29 28 29 29 27 24 23 22 23 24 25 25 23
11 12 12 13 13 13 14 14 14 15 16 18 17 18 20 24 27 25 25 25 26 27 29 29 30 31 30 32 31 31 29 29 28 28 27 28 26 24 22 22 23 24 24 23 23
12 12 12 12 12 13 13 14 14 15 17 18 17 17 19 25 25 25 25 26 26 28 29 29 29 30 30 30 30 30 30 28 27 27 27 25 24 24 23 23 23 23 23 22 22
11 11 11 12 12 13 13 13 15 16 18 18 17 17 24 26 25 25 26 25 26 26 28 27 28 29 30 29 29 30 28 28 27 27 27 27 24 23 22 23 23 23 22 21 22
10 10 12 12 13 13 13 15 16 17 19 18 18 17 26 25 26 26 26 26 26 26 26 26 27 29 28 29 29 28 28 26 27 27 26 26 24 24 23 23 22 23 21 21 22
10 10 11 13 13 13 15 16 17 18 19 19 18 21 26 25 26 26 26 27 26 27 26 27 27 28 28 27 27 28 27 27 26 28 26 24 25 23 23 23 23 22 21 21 21
10 12 13 13 13 14 16 17 17 19 20 18 22 25 26 27 26 26 26 26 27 27 27 27 27 26 26 27 25 28 28 29 29 26 26 25 24 23 22 22 22 22 21 21 20
13 14 14 14 15 16 17 18 20 21 23 25 27 27 27 26 25 27 26 27 27 27 26 27 26 25 28 29 28 27 27 27 28 26 25 24 24 26 22 21 21 21 22 21 21
14 14 15 15 16 17 16 22 22 23 24 26 26 26 27 27 27 27 26 26 27 26 28 27 25 27 28 27 27 27 27 27 28 26 25 24 24 25 22 21 21 21 21 21 21
15 15 16 17 17 17 19 23 21 22 25 25 27 27 26 26 27 25 26 27 27 27 28 26 27 27 27 27 26 27 26 26 25 26 25 24 23 24 24 22 21 22 21 22 21
16 17 17 17 16 22 23 21 21 21 25 24 25 26 26 27 25 25 25 25 27 27 27 27 26 26 26 26 27 25 25 25 25 24 23 25 21 26 23 21 21 20 20 20 21
16 17 17 17 18 23 21 21 21 22 25 25 25 25 27 26 25 24 24 25 25 27 26 26 26 25 25 26 26 24 24 24 24 22 22 23 22 25 22 21 20 20 20 20 20
17 17 17 17 20 20 20 21 22 24 24 24 25 25 25 26 26 25 25 25 25 25 25 25 25 25 24 24 24 24 23 23 23 22 20 23 23 23 22 23 22 21 20 20 20
17 17 17 19 21 20 20 23 24 25 26 24 25 25 26 26 25 25 25 25 24 24 24 26 25 24 23 23 23 23 22 22 21 20 22 25 24 25 24 24 24 22 20 20 19
17 17 19 19 19 19 22 24 24 27 26 25 25 25 25 26 25 25 24 24 23 23 23 25 23 23 23 23 22 23 23 21 22 23 24 24 22 24 23 23 24 24 21 20 19
18 19 21 20 20 20 23 24 24 25 26 25 25 25 25 25 24 24 25 24 21 21 22 24 22 22 22 22 22 23 21 22 22 23 22 24 25 23 23 22 22 22 20 19 19
18 22 22 20 20 21 23 25 24 23 24 24 25 26 26 25 23 24 24 21 21 20 20 22 22 23 20 21 21 21 21 21 20 22 22 25 24 21 21 21 22 21 20 19 19
18 23 21 21 21 23 24 23 22 22 22 23 24 25 25 25 24 25 23 20 20 20 20 21 22 21 21 20 22 20 21 21 21 20 21 20 22 25 23 22 20 20 20 19 18
22 23 21 21 22 25 25 23 17 21 21 22 22 23 24 23 24 24 23 20 18 19 21 18 19 20 22 20 20 20 21 22 20 21 20 17 18 21 21 21 21 20 20 19 19
23 23 21 22 23 25 22 21 21 21 21 21 22 21 22 23 22 22 21 16 17 18 17 17 19 19 19 19 20 20 22 21 20 18 16 16 18 21 21 21 21 20 20 19 19
23 23 23 23 24 24 24 23 20 19 20 21 21 21 21 21 21 21 20 17 16 17 15 15 19 20 19 20 20 20 21 21 20 15 18 18 21 22 21 20 18 18 17 16 17
23 23 20 23 24 24 24 23 22 20 20 20 20 21 22 22 21 21 20 17 16 15 16 17 18 19 19 20 20 20 19 19 19 19 17 19 19 20 19 18 18 19 19 19 17
22 23 22 23 24 24 19 23 23 21 21 21 20 21 21 21 20 21 21 20 20 16 17 17 17 18 17 20 18 18 18 18 18 19 19 19 18 19 20 18 18 18 17 16 16
20 20 20 18 23 24 23 23 22 21 19 20 21 21 20 18 18 18 18 18 18 18 17 17 16 16 16 19 18 17 19 20 19 20 19 17 18 19 17 17 17 16 15 16 15

GFSSW_925_temp_051.txt.gz
Temp
12 13 13 13 13 14 14 14 15 15 15 16 16 18 19 19 23 23 24 25 26 26 27 27 28 29 29 28 29 28 24 24 27 28 28 28 28 27 25 23 23 23 23 25 25
12 13 13 13 13 13 14 14 15 15 15 16 16 18 19 18 20 22 24 25 25 26 27 27 27 28 26 29 28 25 23 28 28 27 28 27 26 26 25 23 21 22 23 25 25
12 13 13 13 13 13 14 14 15 15 15 16 16 18 19 18 19 24 25 25 26 26 26 26 28 28 29 30 29 28 25 28 27 27 27 26 25 24 22 22 22 21 23 22 23
12 12 12 13 13 13 14 14 14 14 15 15 16 18 19 18 24 25 25 26 26 26 26 28 28 28 29 28 30 27 28 28 28 27 27 27 24 22 21 21 21 22 23 21 20
12 12 12 12 13 13 13 13 14 14 15 16 17 18 19 19 24 25 25 26 26 27 27 28 27 28 28 28 30 27 27 27 26 26 25 25 23 21 20 20 21 23 21 19 19
11 12 12 12 12 13 13 14 14 15 15 16 17 18 17 22 25 25 25 26 26 26 27 26 26 27 28 28 27 28 26 25 26 25 25 23 22 23 20 20 21 21 19 19 20
11 11 11 12 12 13 13 14 14 15 16 16 17 18 18 22 25 25 26 26 26 26 26 26 27 26 27 27 28 26 26 25 24 24 24 23 22 21 20 20 20 19 18 19 20
10 11 11 12 12 13 14 14 15 16 16 17 18 17 19 25 25 26 26 26 26 26 26 26 27 27 27 27 27 27 25 23 24 23 24 23 21 21 19 19 19 17 17 18 19
10 10 11 12 13 14 14 15 16 17 17 17 18 18 23 25 25 26 26 26 26 26 26 26 26 26 26 24 22 24 23 23 25 23 23 23 22 20 19 19 19 16 16 17 17
10 10 11 13 14 14 15 16 17 17 18 18 19 19 24 25 25 26 26 26 26 26 26 26 23 22 22 21 22 24 25 25 24 24 22 21 21 19 19 19 19 16 16 17 16
10 11 13 14 14 15 15 16 16 17 20 22 23 24 25 25 25 25 26 26 26 26 24 25 22 22 23 23 25 26 25 24 24 25 24 21 21 21 19 19 18 17 16 16 17
12 14 14 15 15 15 15 15 21 22 22 24 25 24 26 25 25 25 26 25 25 24 24 23 22 25 26 26 25 25 24 23 24 24 23 22 21 21 20 20 19 18 16 16 16
14 15 15 15 15 15 17 20 21 22 21 24 25 24 25 25 24 24 24 24 25 25 24 23 25 26 26 25 25 25 24 23 24 23 23 22 20 21 20 19 19 18 18 17 16
15 15 15 15 15 19 18 21 21 21 19 22 23 24 25 25 22 24 24 23 25 25 25 25 25 25 25 25 24 23 23 23 23 21 20 23 18 19 19 18 18 18 17 17 16
15 15 15 15 16 19 20 21 21 21 19 23 24 25 25 24 22 23 24 24 23 23 23 23 24 24 24 24 24 23 23 22 22 20 19 19 19 18 18 18 17 17 17 17 16
16 16 17 16 16 20 20 21 21 19 21 23 23 23 23 24 23 23 23 24 23 23 24 22 24 24 23 23 23 22 22 21 21 18 17 18 19 19 19 19 18 17 17 17 16
17 17 17 17 18 20 20 19 19 20 23 22 22 23 22 23 23 23 22 22 21 21 21 22 22 22 23 22 22 22 18 17 18 17 18 21 20 20 22 21 20 18 16 16 16
18 18 18 19 19 20 20 18 21 23 23 24 24 24 23 23 23 23 22 20 20 22 19 20 20 21 22 22 21 20 18 17 20 18 19 21 20 20 20 19 19 18 17 16 16
17 18 19 20 20 20 16 18 20 22 23 23 24 23 23 23 23 23 21 20 18 18 20 19 19 21 20 20 21 21 19 20 19 19 18 19 20 20 20 20 19 17 16 16 15
18 19 21 21 21 20 16 20 20 21 21 23 23 22 22 22 21 21 21 19 18 18 18 19 20 21 20 20 20 20 19 18 16 19 20 19 21 20 20 19 20 17 16 17 16
17 16 20 21 20 15 17 20 20 21 20 21 21 23 23 22 22 22 20 18 18 18 18 19 18 20 19 18 18 18 18 19 16 15 16 16 17 20 19 19 18 18 17 16 15
16 17 21 20 17 15 18 21 17 20 20 21 21 21 21 21 22 21 19 16 16 16 19 17 15 17 19 19 19 19 20 17 15 18 15 11 15 19 17 17 17 18 17 17 17
15 15 21 21 17 16 18 19 19 20 20 20 20 20 20 20 20 20 15 16 15 15 15 15 15 15 18 18 19 19 20 20 16 12 15 12 16 18 18 19 19 19 17 14 16
14 17 15 15 15 21 20 19 18 18 19 20 19 20 20 20 19 19 16 16 15 15 16 14 15 15 15 18 17 19 20 20 17 9 14 14 16 17 17 17 17 17 17 16 16
13 16 16 16 17 20 22 20 18 18 19 19 19 19 20 20 19 19 16 14 15 15 15 14 15 17 17 16 18 18 17 17 16 15 15 17 17 16 17 18 18 18 15 16 15
15 16 14 17 19 20 19 21 20 19 18 19 19 19 20 18 18 18 18 16 16 14 15 14 14 15 15 17 18 17 16 16 16 16 15 15 15 17 17 16 14 13 14 14 14
19 18 14 15 18 18 18 21 19 17 18 18 19 18 18 16 15 16 15 15 15 14 14 13 13 11 12 14 14 14 17 18 18 17 17 16 16 16 15 14 15 13 13 12 13

GFSSW_925_temp_054.txt.gz
Temp
12 13 13 13 13 13 14 14 15 15 15 15 16 17 18 19 21 21 22 25 25 26 27 27 28 28 28 27 28 24 22 24 27 26 27 27 27 24 22 22 22 22 22 23 23
12 12 13 13 13 13 13 14 14 14 15 15 16 16 17 18 19 20 25 25 26 26 27 26 26 27 26 28 26 24 22 26 27 27 27 26 26 23 23 22 21 22 22 22 23
12 12 12 13 13 13 13 13 14 14 14 15 16 16 17 18 18 23 25 25 26 26 25 27 25 27 28 28 28 26 25 26 26 26 26 25 24 23 21 22 20 21 21 21 21
12 12 12 12 13 13 13 13 14 14 14 15 16 16 17 18 23 25 25 25 26 26 26 27 26 27 27 28 29 27 27 27 26 26 27 25 23 21 21 22 20 20 21 20 18
11 12 12 12 12 13 13 13 14 14 14 15 16 16 17 18 20 25 25 25 26 26 26 26 26 27 27 27 28 27 26 26 25 24 23 22 22 21 20 19 20 19 19 18 18
11 11 12 12 12 13 13 13 14 14 15 15 16 16 17 20 25 25 25 25 26 26 26 26 25 26 27 27 27 26 26 25 25 25 24 23 21 22 19 19 20 19 17 17 18
11 11 11 12 12 12 13 13 14 14 15 16 16 15 17 21 25 25 25 26 26 26 23 25 25 27 27 27 27 24 25 24 24 23 24 22 22 20 19 18 19 17 16 17 18
10 11 11 11 12 12 13 13 14 15 16 16 16 15 19 24 25 25 25 26 26 26 26 26 26 26 26 26 26 25 23 23 23 22 24 24 21 22 18 18 17 16 15 17 17
10 10 10 11 12 13 13 14 15 16 16 16 15 17 20 24 25 25 26 26 26 26 26 26 26 25 25 22 22 21 22 21 23 21 22 22 21 21 17 18 17 15 14 16 16
9 10 10 10 12 12 13 15 16 16 17 16 16 19 22 23 25 25 26 26 25 25 25 25 21 22 20 21 22 22 22 24 24 23 21 21 20 20 18 17 17 14 14 15 15
10 10 10 12 12 13 14 15 14 15 16 18 21 22 23 24 25 25 25 25 25 24 23 24 22 22 23 22 23 24 24 24 23 24 22 20 19 19 18 17 16 14 14 14 15
10 10 11 12 13 14 15 13 18 21 20 21 23 24 24 25 23 24 25 24 24 23 24 22 22 23 24 24 25 24 24 22 23 24 23 22 21 21 18 18 18 16 15 15 15
11 11 11 12 14 15 14 17 20 21 20 23 23 24 24 25 23 23 24 23 24 24 23 22 25 25 25 25 24 23 23 22 22 22 22 21 19 20 20 19 17 17 16 15 15
14 14 14 14 14 15 16 20 20 21 18 22 23 24 24 24 22 24 23 23 24 24 23 23 24 25 24 24 23 23 22 23 22 20 20 20 18 18 19 18 17 16 15 15 14
15 15 15 14 14 15 19 20 21 21 20 22 23 24 24 23 22 22 23 23 22 23 22 23 23 23 23 23 23 22 22 22 21 19 19 18 18 18 18 18 16 16 15 14 14
16 16 15 15 15 19 19 20 21 19 21 21 22 22 23 23 22 22 23 23 22 22 22 22 23 23 23 22 22 21 21 17 16 16 16 18 18 18 18 19 17 16 15 15 14
17 17 16 16 17 19 19 18 18 19 22 21 21 22 22 22 22 22 22 21 20 21 21 21 22 21 22 22 21 19 17 17 18 16 17 19 18 18 18 19 19 17 15 15 14
17 17 17 18 19 19 20 18 21 22 22 23 23 21 21 22 22 22 21 19 19 20 18 19 20 21 21 21 20 19 17 16 20 17 18 18 19 20 20 18 16 17 16 15 14
16 17 17 20 19 19 16 18 20 21 22 22 23 22 22 22 21 22 20 18 18 18 19 18 20 20 20 20 20 20 18 18 18 16 16 17 20 19 20 18 16 15 16 15 14
17 17 18 20 20 19 16 18 20 20 20 22 22 21 20 21 21 21 19 18 18 18 17 18 19 19 19 20 19 20 18 18 15 19 19 17 19 18 20 19 18 17 16 16 15
16 15 20 20 20 15 17 17 20 20 20 21 21 21 21 21 21 20 18 16 16 18 18 18 17 19 19 18 17 17 17 17 15 14 16 16 17 18 19 18 18 18 16 15 14
15 16 19 20 16 11 16 20 18 19 20 20 20 20 21 21 21 19 18 16 15 16 18 15 14 16 18 18 18 18 18 16 14 17 13 10 14 17 17 16 17 17 16 15 15
13 14 19 20 16 15 17 18 18 19 18 20 19 19 20 19 19 17 15 15 15 15 16 16 15 15 17 17 18 19 19 17 13 10 14 12 15 16 16 18 15 17 15 14 16
12 16 14 12 12 16 18 18 17 17 18 19 19 19 19 19 18 17 15 15 15 15 16 14 13 15 15 18 17 17 19 18 15 9 13 13 16 17 16 17 17 16 15 14 14
11 15 15 15 17 18 18 18 17 18 18 18 19 19 19 18 18 17 15 14 15 15 15 13 15 15 16 15 16 16 16 16 15 15 14 16 15 15 14 16 15 14 14 13 13
14 15 12 14 17 18 17 17 18 17 17 18 18 18 19 18 18 17 15 15 16 14 15 12 14 14 15 15 14 16 15 14 14 15 14 14 14 15 13 13 13 12 12 12 10
15 15 14 14 16 17 17 19 18 16 17 17 18 17 17 16 15 15 13 12 14 13 13 13 12 11 13 12 13 14 17 16 17 16 16 15 14 13 12 13 13 12 12 12 11

GFSSW_925_temp_057.txt.gz
Temp
12 13 13 13 13 13 13 13 14 14 14 15 15 15 16 17 20 21 20 24 25 26 26 27 27 27 27 26 26 22 22 23 25 24 27 26 25 23 21 21 21 21 21 21 21
12 12 13 13 13 13 13 13 13 14 14 15 15 15 16 17 18 19 25 24 25 26 26 25 26 25 25 27 25 23 22 24 25 25 26 26 25 22 23 21 21 20 20 20 21
12 12 12 13 13 13 13 13 13 13 14 15 15 15 16 16 17 22 26 25 25 25 25 26 25 26 27 27 27 24 25 25 26 26 25 24 23 22 20 22 20 20 19 19 19
12 12 12 12 12 12 13 13 13 13 14 14 15 15 16 16 22 25 25 25 25 25 25 26 25 26 26 27 27 28 26 25 25 26 25 24 22 21 21 22 20 18 18 18 16
11 12 12 12 12 12 12 13 13 13 14 14 15 15 16 16 20 25 25 25 25 25 25 25 26 26 26 27 27 27 26 25 24 23 22 22 22 23 21 19 18 18 18 16 16
11 11 11 12 12 12 12 13 13 13 13 15 15 15 15 19 25 25 25 25 25 25 25 25 26 25 26 26 27 25 25 24 24 24 23 23 21 21 19 18 18 17 16 15 15
11 11 11 11 12 12 12 13 13 13 14 15 15 14 14 20 25 25 25 25 25 25 24 25 25 25 26 26 26 24 26 24 24 23 24 21 22 20 19 17 17 16 15 15 16
10 10 10 11 11 11 12 13 13 13 14 15 15 14 15 24 24 25 25 25 25 25 25 26 25 25 25 25 23 24 22 23 24 22 23 23 21 23 17 17 16 15 14 15 15
10 10 10 10 10 11 12 13 13 13 15 15 14 14 19 24 24 25 25 25 25 25 25 25 25 24 24 22 21 20 22 21 22 21 22 22 21 21 16 17 16 14 14 15 15
9 9 10 10 10 11 13 13 13 15 15 14 15 16 20 22 25 25 25 25 25 24 24 24 20 21 20 21 22 22 22 22 22 23 21 21 19 20 16 16 16 14 13 14 14
9 9 10 10 10 12 13 13 13 14 14 17 19 20 21 23 25 25 25 25 24 23 22 22 22 22 22 22 23 23 23 23 23 23 21 19 19 19 17 15 15 14 13 13 13
10 10 10 10 11 11 11 12 16 19 19 17 18 20 23 24 22 23 24 24 23 22 22 21 22 23 23 22 23 24 23 22 22 23 21 21 20 19 18 17 17 16 14 14 14
11 11 11 10 11 11 13 15 19 18 19 22 20 21 22 24 22 22 23 23 23 23 22 22 24 23 24 24 24 23 22 22 22 21 21 20 19 19 20 18 17 16 15 15 14
14 14 13 11 12 13 14 19 19 19 17 21 22 22 22 22 22 23 22 23 23 22 21 23 23 24 23 23 22 22 22 22 22 20 19 19 18 18 18 16 17 15 13 13 13
14 14 14 14 13 13 18 19 19 19 18 21 20 24 23 23 22 22 22 22 22 22 22 22 23 23 23 23 23 22 21 21 20 18 18 18 17 18 17 18 17 15 13 13 13
15 15 15 14 14 18 18 19 19 18 20 21 22 22 22 22 22 22 22 20 21 21 21 21 22 22 22 21 21 20 20 16 15 15 16 17 17 18 18 18 17 17 14 14 13
16 15 16 15 16 18 18 17 18 18 21 20 21 21 21 21 21 22 21 18 19 20 20 20 21 21 22 21 20 18 17 17 17 16 17 17 17 17 18 18 17 16 15 14 13
16 16 17 17 18 18 18 17 20 20 21 22 21 20 21 21 21 21 20 18 18 18 17 19 19 20 20 21 20 19 17 16 20 17 17 17 18 19 19 17 15 14 15 15 14
16 16 16 19 19 18 15 17 19 20 20 21 21 21 21 21 21 21 19 17 17 17 19 18 20 19 19 19 20 18 17 17 16 15 15 16 17 19 18 17 15 14 16 16 14
16 16 17 19 19 18 16 18 19 19 19 21 21 20 19 20 21 20 18 17 18 17 17 18 19 19 19 19 18 19 17 17 14 19 18 16 17 17 17 18 16 16 17 16 14
17 14 18 19 18 14 17 17 19 19 19 21 20 21 20 20 19 19 18 16 16 17 17 17 17 18 18 18 17 16 17 14 14 13 15 15 16 15 18 18 19 18 14 14 14
14 16 18 18 15 10 15 19 18 19 19 19 19 20 20 20 19 18 18 16 15 15 17 15 14 16 17 17 17 17 17 15 14 16 11 9 13 16 15 15 15 16 15 14 13
13 13 18 18 16 14 15 18 18 19 18 19 19 19 19 19 19 16 15 14 15 15 16 15 14 15 17 16 17 17 17 14 11 10 12 12 14 15 14 15 14 13 12 12 13
12 15 13 11 11 15 17 18 18 17 18 18 18 19 19 19 16 15 15 15 14 14 16 14 12 15 15 17 16 17 18 15 14 9 12 12 15 16 15 14 12 12 12 12 11
10 14 14 14 15 16 17 16 17 17 17 18 18 18 18 18 18 16 14 14 14 15 14 13 15 14 15 14 15 15 16 16 15 14 14 15 13 15 13 13 13 13 11 11 11
13 14 10 12 14 17 16 16 17 17 17 18 18 18 18 18 18 16 14 14 16 13 14 11 14 14 15 14 13 14 15 14 13 14 13 13 13 12 13 13 12 11 12 12 12
12 13 13 12 14 16 15 17 17 16 17 16 17 16 16 15 14 13 12 11 13 13 12 12 11 11 13 11 12 14 15 16 16 14 15 14 13 13 13 12 12 12 11 11 10

GFSSW_925_temp_060.txt.gz
Temp
12 12 12 12 13 13 13 13 13 13 13 14 14 15 15 16 18 19 19 24 24 24 25 26 26 26 26 25 24 22 21 22 24 24 26 23 24 22 21 21 20 19 20 19 20
12 12 12 12 13 13 13 13 13 13 13 14 14 15 15 16 16 16 24 25 24 24 25 24 26 25 24 26 24 23 22 24 24 23 25 24 25 22 22 21 20 19 18 19 20
12 11 12 12 12 12 12 13 13 13 13 14 14 14 15 15 15 21 26 26 24 24 25 23 24 25 27 26 26 24 25 24 26 25 24 23 22 22 20 21 20 19 18 18 18
11 12 11 12 12 12 12 12 13 13 13 13 14 14 15 15 20 24 24 25 24 24 24 24 22 26 25 27 26 27 25 25 24 24 24 24 21 22 21 22 20 17 17 17 16
11 11 12 12 12 12 12 12 12 12 13 13 14 14 15 15 17 24 24 25 24 24 24 22 23 24 26 26 27 27 25 24 22 22 21 21 21 23 20 18 16 17 17 15 15
11 11 11 11 12 12 12 12 12 12 13 13 13 14 13 16 24 24 24 24 24 24 23 23 24 24 25 25 26 24 24 23 24 23 22 23 21 21 20 16 16 16 15 14 14
11 11 11 11 11 11 12 12 12 12 13 13 13 14 13 17 24 24 24 25 25 25 24 23 24 23 25 26 24 23 25 24 23 23 23 21 22 20 18 16 16 15 14 14 14
11 10 10 11 10 11 11 12 12 12 13 13 13 13 13 22 23 24 24 24 24 25 25 24 25 24 25 23 22 23 22 23 23 22 22 23 21 22 16 16 15 14 13 14 14
11 10 10 10 10 10 10 11 12 13 14 13 13 13 16 23 23 24 25 24 24 24 25 25 24 22 24 22 21 20 23 22 22 21 22 22 22 21 15 16 15 13 13 13 13
10 9 9 10 10 10 10 12 13 14 14 12 14 14 18 22 24 24 24 25 24 23 23 23 19 21 20 22 22 23 22 22 22 22 21 21 19 19 16 15 15 13 12 13 13
9 9 9 9 9 10 11 13 13 13 13 15 17 17 21 22 24 23 24 24 23 22 22 21 21 21 21 21 23 22 22 23 23 22 21 19 18 19 16 14 14 13 12 12 13
9 9 9 10 10 10 11 11 15 17 16 15 16 17 20 22 22 22 24 22 22 22 21 21 21 23 23 21 23 23 23 22 22 22 20 20 19 19 17 16 16 15 13 13 13
9 10 10 10 11 12 12 14 17 16 16 20 17 21 21 22 21 22 22 21 22 21 21 21 23 22 23 22 23 22 22 22 22 20 20 18 19 20 19 17 17 15 14 13 13
10 13 11 11 12 13 12 17 17 16 16 20 21 21 22 21 20 22 22 22 22 21 20 22 23 23 23 23 22 22 21 22 21 20 19 19 18 18 17 16 17 15 13 13 13
11 14 13 13 13 12 17 17 17 17 16 20 21 23 21 21 21 21 21 22 22 21 21 22 22 22 22 22 22 21 20 20 19 17 18 18 17 18 17 18 17 15 13 12 12
14 14 14 12 12 17 17 18 18 17 19 20 21 20 20 21 20 21 22 19 21 20 19 20 21 21 21 19 20 19 19 16 14 15 16 17 17 18 17 17 15 16 15 13 12
15 14 13 14 15 17 17 17 17 18 20 20 20 21 20 20 21 21 19 18 19 20 20 20 20 20 21 20 19 18 17 16 17 16 17 17 17 17 17 17 16 14 13 14 13
15 14 15 16 18 17 17 18 19 20 20 20 19 20 20 20 20 20 19 17 17 17 16 18 19 19 19 20 19 18 17 15 20 17 17 16 17 18 17 15 14 14 14 14 14
14 14 15 18 18 17 15 17 18 20 19 20 20 20 20 20 20 19 18 17 17 16 19 17 19 19 18 19 19 18 17 16 15 13 15 15 17 18 16 16 14 14 13 13 13
15 15 16 17 17 17 15 17 18 18 19 20 20 20 19 20 20 19 18 16 17 17 16 17 19 18 18 18 17 18 16 16 13 18 18 15 16 16 17 17 15 13 12 12 12
15 15 17 17 17 14 16 16 18 19 19 20 20 19 19 19 18 18 18 16 16 17 16 16 16 18 18 17 16 16 16 13 13 12 15 15 16 14 16 16 14 12 11 11 10
13 16 17 18 15 9 15 17 18 18 18 19 19 19 19 18 18 18 17 16 14 15 17 15 13 16 18 16 16 16 16 14 14 15 10 9 13 15 14 14 13 12 11 11 11
12 12 17 18 16 14 15 17 17 18 17 19 18 19 18 18 19 16 15 14 14 15 16 15 14 15 16 16 16 17 16 12 10 10 11 12 14 14 13 12 11 11 11 10 10
11 15 12 10 10 15 17 18 18 17 17 17 18 18 18 18 14 15 15 14 14 14 15 14 11 14 14 17 15 17 16 14 13 9 12 12 15 16 12 13 12 11 11 11 10
9 13 13 14 14 14 16 16 17 18 17 17 18 18 18 17 17 15 14 14 13 14 13 12 15 14 14 14 15 15 16 14 14 13 14 15 13 14 13 12 13 12 11 12 11
12 12 9 11 13 15 15 16 17 16 17 17 18 17 17 17 17 15 14 14 16 13 13 10 13 13 15 13 13 13 13 13 13 14 12 12 12 12 12 12 12 11 11 12 11
11 11 12 11 12 15 15 16 16 15 15 15 16 15 15 15 13 11 10 9 12 12 11 11 11 11 14 11 12 13 13 13 14 13 14 14 13 12 13 12 11 11 10 9 9

GFSSW_925_temp_063.txt.gz
Temp
12 12 12 12 12 13 13 13 13 13 13 13 14 14 14 15 16 18 18 23 25 25 25 26 26 25 25 24 23 22 25 25 25 25 27 24 25 22 22 23 22 20 21 20 19
11 12 12 12 12 12 12 12 12 13 13 13 13 14 14 15 16 16 24 24 24 25 25 24 24 24 25 25 24 25 25 26 25 25 26 24 25 23 23 22 21 21 19 19 19
11 11 11 12 12 12 12 12 12 13 13 13 13 14 14 15 14 21 25 25 23 25 25 24 24 24 26 25 25 24 27 25 25 25 25 24 23 22 23 22 22 22 19 19 19
11 11 12 12 12 12 12 12 12 12 13 13 13 14 14 15 20 23 24 24 23 24 24 23 22 24 25 26 26 27 25 25 24 24 24 24 23 23 22 24 21 21 20 19 20
11 11 11 12 11 11 12 12 12 12 13 13 13 13 14 14 16 23 23 23 23 24 24 22 22 23 25 25 26 26 25 23 22 22 22 22 22 23 22 19 19 18 19 19 19
11 11 11 11 11 11 11 12 12 12 12 13 12 13 13 15 22 23 23 23 23 24 23 22 23 22 23 25 26 24 23 23 23 23 22 23 21 22 21 18 18 19 19 18 18
11 11 11 11 11 11 11 11 12 12 12 13 12 12 12 16 22 23 23 24 24 24 22 23 23 22 24 24 23 23 25 24 23 23 23 22 23 22 20 18 19 19 18 17 17
11 10 10 11 11 11 11 11 12 12 12 13 12 12 14 21 21 22 23 24 24 24 25 24 23 22 23 22 23 23 23 25 23 22 21 23 25 23 18 19 19 18 17 17 17
11 11 10 10 10 10 10 10 12 12 13 12 12 12 16 21 21 24 24 24 24 23 23 23 23 22 23 23 23 22 25 23 24 22 22 23 24 21 17 18 19 18 17 17 17
10 10 9 9 9 10 10 12 13 12 13 12 12 13 17 21 23 23 24 24 23 21 23 23 20 22 21 23 24 23 24 22 23 22 21 21 22 21 18 18 19 18 17 17 17
10 10 9 9 9 10 10 13 12 12 12 14 16 16 19 22 22 22 23 23 22 21 22 21 23 23 23 22 23 23 23 23 23 22 22 21 20 22 20 17 18 17 17 17 17
9 9 9 9 9 10 10 11 14 15 14 14 14 16 18 20 21 21 23 22 22 21 19 21 22 21 21 21 22 22 23 23 22 21 21 20 21 21 19 18 17 18 17 17 16
9 9 9 9 9 10 11 14 16 15 14 17 15 17 20 20 20 21 21 21 21 20 20 21 22 21 22 21 22 22 22 22 22 20 20 19 21 21 19 18 18 17 17 17 17
9 9 10 9 9 11 12 16 15 14 16 19 20 20 21 18 20 21 21 21 20 20 20 22 21 22 22 22 22 22 21 21 21 21 22 19 21 20 19 19 18 17 15 16 16
9 9 10 9 11 11 16 16 15 15 16 19 19 21 18 20 20 21 20 21 21 20 21 21 21 22 22 21 22 21 19 19 19 18 19 18 20 21 18 20 19 18 16 15 15
12 9 9 10 10 16 16 16 16 16 18 19 19 19 19 19 19 21 20 19 20 20 20 20 20 20 20 18 19 17 18 16 15 17 19 18 19 21 19 19 18 18 16 15 15
13 11 10 11 14 15 15 16 17 17 19 19 20 20 20 19 19 19 18 17 19 20 20 19 19 19 20 19 19 19 18 19 20 19 20 17 18 20 18 18 16 15 15 16 15
12 13 13 14 16 15 15 17 18 19 19 19 19 19 20 20 19 19 18 18 16 17 17 19 20 19 18 19 19 18 19 19 21 20 19 16 18 20 17 16 15 14 14 15 14
13 12 13 16 16 15 16 17 18 19 19 18 20 19 19 20 19 18 17 17 16 16 19 18 19 18 17 18 18 18 18 16 16 14 17 17 18 19 17 17 15 15 15 14 14
14 13 15 16 16 16 15 17 18 18 18 19 20 19 18 19 19 19 18 16 17 16 16 17 19 17 18 17 16 18 16 18 16 19 19 18 17 20 18 17 15 14 14 13 13
14 14 16 16 16 13 16 16 18 18 18 20 19 19 18 19 18 18 17 16 16 16 16 16 17 18 18 17 17 17 17 14 15 16 19 19 20 16 17 15 15 14 13 13 13
12 15 16 17 15 9 15 16 16 18 17 18 18 19 19 18 18 17 17 15 13 14 17 14 15 17 17 15 15 16 16 16 18 17 13 15 18 15 15 14 14 13 13 12 12
12 12 16 17 16 14 15 17 16 18 17 18 18 17 17 17 18 16 15 13 13 15 16 15 15 16 18 16 16 16 15 13 12 12 14 17 19 14 13 13 13 13 13 12 12
11 15 12 10 10 15 17 17 18 16 17 17 17 17 18 17 14 14 14 13 13 14 15 14 12 16 17 17 15 16 15 13 15 15 15 16 17 16 14 13 13 13 12 13 12
9 13 12 14 14 14 15 16 17 18 16 16 17 18 17 17 16 15 13 13 13 13 12 13 15 14 14 14 14 15 16 13 14 14 17 16 14 15 14 13 13 12 12 13 13
11 12 9 11 12 14 14 15 16 16 17 17 17 16 16 16 17 15 13 13 15 13 13 11 13 13 15 13 13 14 14 13 13 13 13 13 14 13 12 12 13 12 12 12 11
10 11 12 10 11 14 14 15 15 15 15 15 15 14 15 15 13 10 10 10 12 13 12 12 11 13 15 11 13 15 14 13 13 13 14 15 14 12 12 12 12 12 10 10 10

GFSSW_925_temp_066.txt.gz
Temp
11 11 12 12 12 12 13 13 13 13 13 13 13 13 14 15 16 18 20 24 24 24 24 25 25 26 27 28 28 28 31 31 31 30 31 29 29 27 27 28 27 27 27 26 24
12 11 11 12 12 12 12 12 12 13 13 13 13 14 14 15 15 19 21 23 24 24 24 27 28 28 29 29 29 30 31 32 32 32 31 29 30 28 28 28 27 26 24 24 23
11 11 11 11 12 12 12 12 12 12 13 12 13 14 14 14 19 24 24 25 24 24 23 25 26 28 29 29 30 30 31 31 30 30 31 30 29 28 29 28 30 28 26 24 24
11 11 11 12 12 12 12 12 12 12 12 12 13 14 14 15 23 24 23 24 24 23 23 26 27 28 28 29 30 30 29 30 29 28 29 29 29 28 28 29 27 28 27 25 25
11 11 11 11 11 11 12 12 12 12 12 12 13 13 14 18 21 22 22 21 22 22 25 27 28 28 28 29 29 30 29 28 28 27 28 28 28 29 27 26 25 26 25 25 26
11 11 11 11 11 11 11 12 12 12 12 12 12 13 15 17 22 21 21 21 23 23 25 26 28 27 27 27 28 28 29 27 27 27 27 28 27 26 27 24 25 24 25 25 25
11 11 11 11 11 11 11 12 12 12 12 12 12 12 15 19 20 21 20 23 23 24 26 26 26 27 27 26 25 27 28 27 27 27 27 27 27 27 26 25 25 25 25 25 24
11 11 11 10 10 11 11 12 12 12 12 12 12 13 17 20 19 21 22 23 23 23 24 24 25 27 26 26 25 27 28 28 26 27 25 26 29 28 25 25 25 25 26 24 24
10 11 11 10 10 10 10 11 10 11 12 12 12 15 19 20 21 23 23 25 24 24 24 24 26 27 26 27 26 26 26 27 28 26 26 26 29 26 24 25 26 26 25 24 24
10 10 10 9 9 9 10 10 12 12 13 12 14 15 19 23 23 23 23 24 25 25 25 26 27 27 27 28 27 26 26 28 28 26 25 26 27 27 24 24 25 26 25 24 24
10 10 10 9 9 9 10 13 16 16 14 18 19 19 21 22 22 24 23 25 25 26 26 26 26 26 27 28 28 27 26 26 26 25 26 27 27 27 28 24 24 25 25 24 24
9 9 9 9 9 9 10 15 17 15 17 18 18 18 19 20 24 24 23 26 25 25 25 25 26 27 27 26 27 27 26 27 25 24 25 27 26 28 25 24 23 24 25 25 24
9 9 9 9 9 9 11 14 14 14 17 19 19 20 22 22 23 24 24 25 26 25 25 26 26 25 25 24 25 26 26 26 26 24 24 24 27 26 24 24 23 23 23 24 24
9 9 9 9 10 12 13 14 14 13 20 21 21 22 23 22 22 22 22 25 25 25 25 26 24 24 25 26 27 26 24 24 24 25 26 24 26 27 25 24 24 23 22 22 22
9 9 9 9 11 13 15 14 14 15 19 21 22 22 22 22 23 23 21 24 25 24 24 24 24 24 25 25 25 25 23 24 23 24 24 24 24 27 24 25 24 23 21 20 20
9 9 9 10 10 14 15 15 14 19 20 20 21 22 23 21 23 23 23 24 23 24 25 23 23 24 23 22 23 22 23 22 22 23 24 24 23 26 24 23 23 22 21 20 20
12 10 9 10 15 14 14 15 19 19 21 21 21 21 22 22 22 23 23 23 24 24 25 24 23 22 23 23 22 23 24 25 25 24 25 21 22 25 22 21 20 19 20 20 20
12 12 10 11 14 12 13 20 19 21 21 21 21 22 22 22 21 22 22 23 21 24 25 25 23 23 21 23 25 24 24 26 24 25 25 20 23 24 21 20 20 19 20 20 20
13 11 12 14 15 12 18 21 22 21 20 20 21 23 21 21 22 21 22 23 21 20 25 24 22 20 20 21 22 22 23 22 23 21 23 25 23 22 21 21 20 20 20 19 19
13 14 16 15 14 15 20 21 21 20 19 20 21 21 22 20 22 22 21 19 20 19 20 22 22 20 20 21 20 22 21 22 23 23 23 24 23 25 21 21 20 20 19 18 19
14 19 16 16 14 20 22 22 21 20 19 21 21 22 22 22 22 22 21 18 18 19 20 21 23 20 20 21 23 21 22 21 22 22 24 24 25 22 22 21 20 19 18 18 18
15 20 16 16 20 20 22 20 17 20 20 20 21 21 22 21 21 21 21 19 16 18 21 19 22 23 21 19 19 20 22 23 23 22 21 21 23 20 20 20 19 18 17 17 17
18 19 16 17 21 22 20 19 19 20 19 20 20 20 20 20 21 20 19 15 16 18 20 19 21 22 20 20 19 20 20 19 20 20 21 22 24 20 19 18 18 18 18 17 17
17 20 19 19 17 21 21 21 20 18 19 19 20 20 20 20 19 18 18 16 15 17 15 18 19 22 23 22 21 20 19 19 21 21 23 22 23 19 19 18 18 17 17 17 17
17 20 17 20 20 20 19 20 20 20 19 19 19 20 21 20 19 19 17 16 16 15 16 19 21 19 19 18 18 20 20 19 19 22 21 22 20 20 20 19 18 18 17 17 17
18 18 15 18 17 19 18 20 20 19 19 20 20 19 19 21 21 20 19 19 20 16 18 17 20 18 19 17 17 17 19 19 19 19 18 19 19 21 19 18 17 17 16 16 16
13 13 17 14 18 19 21 21 20 20 17 17 19 19 19 17 17 16 16 17 18 18 18 18 18 19 21 17 18 20 20 18 18 18 19 19 20 17 16 16 17 16 16 15 14

GFSSW_925_temp_069.txt.gz
Temp
12 11 11 11 12 12 12 13 13 13 13 13 14 13 14 15 15 18 22 24 25 24 24 25 27 29 28 30 30 31 31 32 33 33 33 33 32 31 31 32 31 31 31 31 28
11 11 11 11 11 12 12 12 12 13 13 13 13 13 14 15 15 20 23 23 24 24 25 28 30 30 30 30 31 31 31 33 35 34 34 32 33 31 31 31 31 30 29 28 27
11 11 11 11 12 12 12 12 12 12 12 12 13 14 14 15 19 25 23 24 24 23 24 27 29 29 29 31 31 32 31 34 33 34 34 32 33 32 31 31 32 31 30 28 27
11 11 12 12 12 12 12 12 12 12 12 12 13 13 15 15 22 24 23 23 23 23 25 27 28 28 29 30 31 31 33 33 32 31 33 32 33 31 31 32 31 32 32 29 28
10 11 11 11 11 11 12 12 12 12 12 12 13 13 15 20 21 24 23 22 22 23 26 28 29 28 29 30 32 30 32 31 31 30 32 32 31 31 31 32 30 30 30 29 29
10 11 11 11 11 11 11 12 12 11 12 12 12 13 15 18 22 24 22 23 24 25 27 28 29 29 29 29 29 30 31 30 30 30 30 30 30 29 31 30 29 29 29 29 29
10 10 11 11 11 11 11 11 11 11 12 11 11 13 17 19 22 23 22 23 24 25 28 28 29 28 29 28 27 29 29 28 29 30 30 30 29 29 31 29 29 29 29 29 28
10 11 11 11 11 11 11 11 11 12 11 11 11 14 17 20 21 21 22 24 25 25 27 28 28 28 27 28 27 27 28 28 29 28 27 27 30 31 29 29 29 29 29 28 28
10 10 11 10 10 10 10 11 12 12 12 12 13 16 19 22 21 22 23 25 26 26 26 26 27 28 27 27 28 28 28 27 26 28 28 26 29 27 28 28 29 29 30 28 27
10 10 10 10 9 9 9 13 13 11 14 14 16 17 19 24 25 24 25 26 26 27 26 27 27 27 28 28 27 28 28 28 27 26 27 28 27 30 28 28 28 29 29 29 27
10 10 10 10 10 9 10 15 17 17 17 19 21 20 23 22 23 25 26 26 27 27 26 27 27 27 28 30 30 29 29 28 26 26 26 28 29 30 30 28 26 27 28 29 28
9 10 9 9 9 9 10 17 18 17 17 21 20 21 21 22 24 26 25 26 26 25 28 26 26 29 30 30 29 29 29 28 28 25 25 25 27 29 30 28 27 27 27 28 28
9 10 9 10 9 10 14 16 16 16 18 22 22 22 23 22 25 26 26 27 26 26 27 27 28 28 28 27 28 28 28 28 27 25 25 25 26 29 27 26 26 26 26 26 28
9 9 9 10 11 15 17 16 16 16 18 22 22 23 23 24 24 25 26 26 27 27 26 27 26 26 27 27 28 27 28 26 27 26 25 26 26 29 28 27 27 26 25 25 25
9 9 9 9 13 16 17 16 15 16 19 22 23 24 24 23 24 24 24 26 26 27 27 26 26 25 25 27 27 27 26 27 26 27 27 27 25 29 27 27 26 25 24 23 24
9 10 11 11 11 14 13 14 16 17 20 22 23 23 23 23 24 24 25 26 26 26 26 26 26 26 26 24 26 25 26 26 26 26 25 28 26 29 27 25 24 24 23 22 22
10 10 11 13 18 14 14 18 20 21 23 22 22 23 24 22 24 24 24 24 26 24 25 25 25 24 25 24 24 25 26 26 26 25 26 26 25 27 24 23 22 23 22 22 22
11 11 13 13 16 15 15 20 20 23 20 23 22 23 23 22 24 24 24 24 24 25 27 26 23 24 24 25 26 25 27 27 26 27 28 24 25 26 23 23 22 22 22 22 22
11 13 15 17 15 15 18 22 23 22 22 22 22 21 20 22 23 24 25 25 24 24 26 27 23 23 23 24 24 25 24 25 26 26 26 28 26 24 23 23 23 22 22 21 21
15 18 20 17 15 16 21 22 24 22 20 21 21 22 20 23 23 22 24 21 22 22 23 26 24 23 22 23 23 24 24 24 25 25 25 27 27 27 23 23 23 22 21 21 21
14 20 18 16 17 21 22 24 23 22 21 22 22 23 24 21 22 22 24 21 21 22 23 25 26 22 22 23 25 23 24 24 24 25 25 26 26 26 25 24 23 22 21 21 20
18 20 18 17 21 24 24 24 17 23 22 22 22 23 23 22 24 24 23 22 19 20 23 23 25 24 24 22 22 23 25 25 24 25 25 24 24 24 24 23 23 21 20 20 19
19 22 18 19 22 25 25 23 22 22 23 23 23 22 23 23 23 23 21 17 18 20 22 23 25 24 22 22 22 22 24 24 24 23 23 24 24 23 22 22 21 21 20 19 19
19 21 21 21 23 23 24 24 23 20 21 21 22 22 22 23 22 21 20 18 17 19 16 19 23 24 24 23 25 23 23 23 23 23 24 25 24 21 21 21 21 20 20 20 19
18 21 21 22 23 23 24 24 24 23 21 22 22 22 23 23 22 22 21 18 18 17 19 21 23 23 22 22 22 23 23 22 22 24 23 24 22 24 23 22 22 21 20 19 19
17 20 20 22 22 23 21 23 23 24 23 23 22 22 22 23 23 23 22 22 22 19 20 20 22 22 22 21 21 21 22 22 22 22 22 22 22 23 23 22 21 20 19 18 19
17 18 18 20 22 22 23 23 23 23 20 20 21 22 21 20 20 20 20 21 21 21 21 21 21 21 23 21 21 22 22 22 22 22 22 21 21 21 19 20 19 19 18 18 17

GFSSW_925_temp_072.txt.gz
Temp
11 11 11 11 11 12 12 12 12 13 13 13 13 14 14 15 15 16 20 22 24 24 24 25 26 27 29 27 29 30 27 28 30 32 32 32 32 32 31 31 32 31 29 30 29
11 11 12 11 11 12 12 12 12 12 12 13 13 14 14 15 14 18 21 22 23 23 23 26 28 29 28 27 28 28 27 29 32 31 32 32 32 30 31 31 30 30 28 29 28
11 11 11 11 12 12 12 12 12 12 12 12 13 14 14 15 17 24 23 23 23 23 23 24 28 29 27 28 27 29 28 31 31 32 34 31 32 31 30 29 31 28 27 28 28
11 11 11 11 11 11 12 12 12 11 11 11 12 13 14 13 20 23 23 24 23 22 23 25 27 27 27 27 28 26 30 32 32 28 32 31 32 31 30 29 30 29 28 27 26
10 10 11 11 11 11 12 12 12 11 11 11 12 12 13 18 18 22 23 24 23 22 23 26 27 27 26 27 28 26 27 30 31 28 32 32 31 31 30 29 30 30 28 27 26
10 10 10 11 11 11 12 12 12 12 12 12 12 11 14 15 20 22 23 23 23 23 24 27 28 29 29 28 28 28 28 29 29 29 31 31 30 29 30 30 29 29 28 27 27
10 10 10 11 11 11 11 11 12 12 12 13 12 12 15 16 19 20 21 23 24 25 25 27 28 29 29 28 28 27 26 26 26 26 28 28 29 27 30 29 28 28 27 27 27
10 10 10 11 11 10 11 11 12 13 13 13 11 12 14 18 19 21 21 22 23 25 26 27 28 29 28 28 27 25 26 24 25 26 25 26 27 28 29 28 28 27 27 26 26
10 10 10 10 10 10 11 13 14 14 13 13 12 15 16 20 21 21 22 23 25 25 26 27 28 27 27 26 25 25 24 24 25 25 25 24 26 27 28 28 28 27 27 25 25
10 10 10 10 10 10 10 14 16 13 14 13 15 16 18 22 23 23 23 23 26 26 26 26 26 26 26 25 24 26 26 26 25 24 24 22 22 24 26 27 27 27 27 26 25
10 10 10 10 10 10 10 14 18 16 15 18 19 19 21 22 23 25 26 25 26 26 24 25 24 24 26 26 27 29 27 26 24 25 24 23 25 26 27 26 25 25 25 26 25
9 10 10 10 10 10 11 16 19 17 16 19 20 20 21 22 22 26 26 25 25 24 25 24 24 27 28 29 28 29 28 25 23 25 25 25 24 25 25 26 25 24 24 25 26
9 10 10 10 11 11 14 16 17 17 17 20 22 22 23 23 23 25 25 25 25 24 24 24 26 28 29 29 28 28 27 27 27 25 25 24 23 24 26 25 26 26 25 24 23
9 10 10 11 11 16 17 17 17 17 16 21 22 23 24 24 24 26 25 25 26 24 25 27 26 28 27 26 27 26 28 27 27 25 24 24 22 26 24 24 25 23 22 22 23
9 10 10 10 11 15 15 15 16 16 18 23 23 24 25 23 23 24 24 24 24 26 26 26 24 25 26 26 27 26 26 24 25 24 24 23 23 25 24 24 22 21 22 22 21
9 9 10 12 12 15 15 15 16 16 19 22 23 23 23 23 25 24 24 24 25 25 24 25 27 25 26 25 26 25 25 26 26 24 22 25 24 24 23 22 22 21 21 21 22
9 9 9 12 18 16 16 17 17 16 22 21 22 23 23 23 24 24 24 23 22 23 24 24 24 24 24 23 25 25 24 22 21 21 22 26 24 22 22 21 22 20 20 20 21
11 10 10 11 15 15 16 19 18 21 21 20 22 23 21 22 24 23 24 22 24 22 24 23 22 23 24 25 24 23 24 23 23 23 23 25 23 20 21 21 21 20 20 19 19
12 14 11 15 16 15 17 20 22 22 23 21 18 19 18 21 23 24 23 23 22 22 22 22 22 23 24 24 23 24 22 24 24 25 23 24 22 22 21 21 21 20 19 18 18
11 14 17 19 17 17 19 21 23 22 21 20 16 18 15 19 22 23 23 22 22 22 22 24 21 23 22 23 23 23 24 22 23 23 23 25 22 21 20 20 20 19 18 18 18
12 17 18 18 17 19 20 23 24 23 21 22 22 20 20 21 22 22 23 21 21 22 21 22 25 21 22 22 23 22 23 23 23 23 22 21 20 23 21 20 20 19 18 18 18
15 18 18 18 18 21 23 23 18 24 22 22 22 23 23 21 19 20 23 21 19 20 22 21 21 22 22 22 22 23 24 24 21 23 22 21 19 23 21 21 20 19 19 18 17
17 19 19 19 19 22 25 24 23 23 23 23 23 23 23 23 22 23 22 18 18 20 18 19 22 21 21 21 22 22 23 23 23 21 21 19 19 22 21 21 21 18 18 17 17
16 18 19 19 20 21 22 23 24 21 21 22 22 22 23 22 23 22 21 18 18 19 17 17 22 22 21 21 22 22 23 23 22 19 21 21 20 20 20 20 19 19 18 17 17
16 18 20 20 21 21 23 23 23 23 21 22 22 22 22 22 23 22 20 18 18 17 20 19 21 22 21 22 22 22 22 22 21 21 21 22 22 20 19 19 18 18 18 18 17
16 18 17 17 21 22 22 23 23 24 23 23 21 23 22 22 20 20 21 21 21 19 20 20 20 22 22 22 21 21 22 22 22 22 21 21 21 20 19 19 20 18 18 18 18
16 16 17 17 18 21 21 23 23 24 22 22 21 22 21 20 20 20 20 20 20 20 19 20 20 20 21 21 21 20 21 21 21 22 21 19 19 19 19 20 19 19 17 18 14

GFSSW_925_temp_075.txt.gz
Temp
11 11 11 11 11 11 12 12 12 12 12 12 12 13 14 14 15 15 16 21 23 22 23 23 25 26 26 26 27 28 24 24 26 27 29 29 29 30 29 28 29 28 26 26 27
11 11 11 11 11 11 12 13 12 12 12 12 12 13 14 14 14 14 22 21 22 22 22 23 23 25 24 25 25 25 23 26 29 27 30 30 29 28 29 27 27 25 25 26 27
11 11 11 11 11 11 12 12 12 12 12 12 12 13 14 14 14 18 21 21 22 23 22 23 23 23 24 26 26 25 25 27 29 29 28 29 28 29 26 27 26 25 24 25 26
10 10 10 11 11 11 11 12 12 11 11 11 11 11 14 14 16 23 23 22 22 23 21 23 23 23 24 25 26 26 25 26 27 27 28 29 28 28 28 28 27 24 24 24 24
10 10 10 10 11 11 11 12 12 11 11 11 12 11 12 13 15 22 22 22 22 22 22 22 22 23 24 25 26 25 23 24 28 26 26 28 28 29 28 26 25 25 24 23 23
10 10 10 10 11 11 11 11 12 12 13 13 12 11 12 12 17 19 19 20 22 22 21 22 23 24 25 25 24 25 24 25 26 25 24 27 27 29 28 25 25 24 23 22 23
10 10 10 10 11 11 11 12 12 12 12 12 11 11 13 13 18 19 19 19 20 21 21 22 23 24 26 26 26 25 25 25 25 24 23 23 25 25 27 26 25 25 22 23 23
10 10 10 11 10 11 11 12 13 13 13 12 11 11 12 17 18 18 19 19 21 22 22 24 24 24 25 25 26 24 24 23 24 24 23 24 25 24 25 27 27 25 23 23 24
9 10 10 10 10 10 11 13 14 14 14 13 11 12 13 18 19 21 21 19 21 22 24 25 25 23 25 23 22 23 21 23 24 24 22 22 24 23 22 24 24 24 23 23 23
9 10 10 10 10 10 13 16 17 14 14 12 13 13 15 19 21 21 22 21 21 22 23 23 22 22 21 20 21 21 23 23 22 22 23 21 21 21 21 24 24 25 24 22 22
9 10 10 10 10 11 13 15 15 13 12 15 17 16 18 20 21 22 22 21 21 21 20 22 20 20 21 22 23 23 23 23 22 22 22 20 22 22 24 24 23 24 23 23 21
9 9 9 10 10 11 12 12 16 16 14 17 18 18 18 19 19 21 24 20 21 20 21 21 19 22 23 24 24 24 23 22 21 23 22 21 22 23 23 25 23 23 23 23 21
9 9 9 10 11 13 14 15 16 16 13 17 20 19 20 21 19 21 22 20 21 21 20 19 22 23 23 24 24 24 22 20 21 21 23 22 21 22 24 23 23 22 22 22 22
15 11 9 9 12 13 15 15 16 16 12 19 20 21 23 20 20 24 23 21 22 21 20 19 21 23 23 24 25 24 25 25 22 21 20 22 19 22 21 22 20 19 19 20 20
14 16 13 10 9 12 16 16 15 15 16 21 22 23 23 22 22 23 23 21 21 20 20 21 21 23 24 24 22 22 23 23 23 22 21 22 20 19 20 20 20 19 19 19 19
12 16 16 13 11 15 15 16 15 16 17 20 22 21 22 20 22 22 22 22 20 20 21 21 21 21 23 22 22 22 22 20 20 19 19 20 20 20 20 19 18 18 19 19 18
13 14 16 15 14 16 15 15 15 16 21 20 20 21 20 19 21 22 22 20 19 18 19 21 21 22 20 21 21 21 19 18 19 18 18 21 20 20 19 19 17 17 17 17 16
15 15 15 17 17 15 14 13 16 21 20 20 18 20 18 20 21 21 21 20 20 21 18 19 20 21 21 20 21 20 19 18 20 18 20 23 20 19 19 17 17 17 16 16 15
15 15 15 19 18 14 11 14 18 20 21 19 18 18 16 19 20 20 22 20 20 19 19 19 20 21 20 20 21 21 21 21 21 22 19 19 19 19 18 18 16 16 16 15 15
14 14 15 19 17 15 12 16 20 21 19 18 18 17 17 18 18 20 21 20 20 21 20 19 19 21 21 22 22 22 22 21 18 21 21 20 18 17 17 17 16 16 15 15 14
13 12 17 18 18 13 13 16 21 21 21 20 18 18 18 18 20 19 21 20 18 19 19 20 19 19 21 20 20 20 20 21 19 18 19 19 18 18 17 17 16 15 15 14 14
13 13 17 18 14 13 15 19 20 22 20 20 20 20 17 19 19 19 21 19 17 18 19 19 18 18 20 21 21 21 21 20 17 20 18 15 16 17 17 17 17 15 15 14 14
11 12 18 18 14 14 17 19 21 22 21 22 21 22 22 21 19 19 19 17 17 18 18 17 18 17 18 19 19 21 21 22 18 15 18 16 17 18 16 16 16 14 14 14 14
10 12 13 13 13 16 16 18 19 20 20 21 21 21 21 21 21 20 18 17 17 18 17 16 18 18 17 20 19 20 21 21 18 15 17 17 17 18 17 16 15 14 14 14 14
10 12 14 13 15 15 16 17 19 20 20 21 20 20 20 19 20 21 18 17 17 18 18 16 19 20 20 21 21 21 21 20 20 18 18 19 19 17 16 16 15 15 14 14 14
10 12 11 12 14 15 16 18 19 20 21 21 20 20 21 20 19 19 19 19 19 17 19 17 18 20 21 20 20 20 20 20 19 20 20 20 19 18 17 15 15 15 14 14 12
14 14 11 11 12 14 15 18 18 19 20 20 19 18 20 19 19 19 18 16 18 17 17 17 17 16 18 20 20 18 18 19 20 21 19 19 18 17 17 16 15 14 14 12 11